Time,TemperatureF,DewpointF,PressureIn,WindDirection,WindDirectionDegrees,WindSpeedMPH,WindSpeedGustMPH,Humidity,HourlyPrecipIn,Conditions,Clouds,dailyrainin,SolarRadiationWatts/m^2,SoftwareType,DateUTC
2013-08-25 00:01:00,64.0,55.5,30.40,SSW,206,1.0,1.0,74,0.00,,,0.00,0,Wunderground v.1.15,2013-08-25 04:01:00,
2013-08-25 00:02:00,63.9,55.4,30.40,SSW,206,1.0,1.0,74,0.00,,,0.00,0,Wunderground v.1.15,2013-08-25 04:02:00,
2013-08-25 00:03:00,63.9,55.4,30.40,SSW,206,1.0,1.0,74,0.00,,,0.00,0,Wunderground v.1.15,2013-08-25 04:03:00,
2013-08-25 00:04:00,63.9,55.4,30.40,SSW,205,1.0,1.0,74,0.00,,,0.00,0,Wunderground v.1.15,2013-08-25 04:04:00,
2013-08-25 00:08:00,63.8,55.4,30.40,SSW,205,0.0,1.0,74,0.00,,,0.00,0,Wunderground v.1.15,2013-08-25 04:08:00,
2013-08-25 00:09:00,63.8,55.4,30.40,SSW,205,0.0,1.0,74,0.00,,,0.00,0,Wunderground v.1.15,2013-08-25 04:09:00,
2013-08-25 00:10:00,63.8,55.4,30.40,SSW,205,0.0,1.0,74,0.00,,,0.00,0,Wunderground v.1.15,2013-08-25 04:10:00,
2013-08-25 00:12:00,63.7,55.3,30.40,SSW,205,0.0,1.0,74,0.00,,,0.00,0,Wunderground v.1.15,2013-08-25 04:12:00,
2013-08-25 00:13:00,63.7,55.3,30.40,SSW,205,0.0,1.0,74,0.00,,,0.00,0,Wunderground v.1.15,2013-08-25 04:13:00,
2013-08-25 00:16:00,63.6,55.2,30.40,SSW,205,0.0,1.0,74,0.00,,,0.00,0,Wunderground v.1.15,2013-08-25 04:16:00,
2013-08-25 00:17:00,63.6,55.2,30.40,SSW,205,0.0,1.0,74,0.00,,,0.00,0,Wunderground v.1.15,2013-08-25 04:17:00,
2013-08-25 00:21:00,63.5,55.1,30.39,SW,227,1.0,1.0,74,0.00,,,0.00,0,Wunderground v.1.15,2013-08-25 04:21:00,
2013-08-25 00:23:00,63.5,55.1,30.40,SSW,209,1.0,2.0,74,0.00,,,0.00,0,Wunderground v.1.15,2013-08-25 04:23:00,
2013-08-25 00:27:00,63.4,55.3,30.40,South,191,1.0,2.0,75,0.00,,,0.00,0,Wunderground v.1.15,2013-08-25 04:27:00,
2013-08-25 00:29:00,63.2,55.1,30.40,South,191,1.0,2.0,75,0.00,,,0.00,0,Wunderground v.1.15,2013-08-25 04:29:00,
2013-08-25 00:30:00,63.2,55.1,30.40,South,191,1.0,1.0,75,0.00,,,0.00,0,Wunderground v.1.15,2013-08-25 04:30:00,
2013-08-25 00:33:00,63.1,55.0,30.39,South,191,1.0,1.0,75,0.00,,,0.00,0,Wunderground v.1.15,2013-08-25 04:33:00,
2013-08-25 00:36:00,63.0,55.3,30.40,South,191,1.0,2.0,76,0.00,,,0.00,0,Wunderground v.1.15,2013-08-25 04:36:00,
2013-08-25 00:37:00,62.9,55.2,30.40,South,191,1.0,2.0,76,0.00,,,0.00,0,Wunderground v.1.15,2013-08-25 04:37:00,
2013-08-25 00:38:00,62.9,55.2,30.40,South,191,1.0,2.0,76,0.00,,,0.00,0,Wunderground v.1.15,2013-08-25 04:38:00,
2013-08-25 00:39:00,62.9,55.2,30.40,South,191,1.0,2.0,76,0.00,,,0.00,0,Wunderground v.1.15,2013-08-25 04:39:00,
2013-08-25 00:43:00,62.7,55.0,30.40,South,191,0.0,1.0,76,0.00,,,0.00,0,Wunderground v.1.15,2013-08-25 04:43:00,
2013-08-25 00:44:00,62.7,55.4,30.40,South,191,0.0,1.0,77,0.00,,,0.00,0,Wunderground v.1.15,2013-08-25 04:44:00,
2013-08-25 00:45:00,62.7,55.4,30.40,South,191,0.0,1.0,77,0.00,,,0.00,0,Wunderground v.1.15,2013-08-25 04:45:00,
2013-08-25 00:46:00,62.7,55.4,30.39,South,191,0.0,1.0,77,0.00,,,0.00,0,Wunderground v.1.15,2013-08-25 04:46:00,
2013-08-25 00:50:00,62.6,55.3,30.39,South,191,1.0,1.0,77,0.00,,,0.00,0,Wunderground v.1.15,2013-08-25 04:50:00,
2013-08-25 00:51:00,62.6,55.3,30.39,South,191,1.0,1.0,77,0.00,,,0.00,0,Wunderground v.1.15,2013-08-25 04:51:00,
2013-08-25 00:56:00,62.4,55.4,30.39,South,191,1.0,2.0,78,0.00,,,0.00,0,Wunderground v.1.15,2013-08-25 04:56:00,
2013-08-25 00:59:00,62.3,55.4,30.39,South,191,1.0,2.0,78,0.00,,,0.00,0,Wunderground v.1.15,2013-08-25 04:59:00,
2013-08-25 01:00:00,62.2,55.3,30.39,South,191,1.0,1.0,78,0.00,,,0.00,0,Wunderground v.1.15,2013-08-25 05:00:00,
2013-08-25 01:01:00,62.2,55.3,30.39,South,191,1.0,2.0,78,0.00,,,0.00,0,Wunderground v.1.15,2013-08-25 05:01:00,
2013-08-25 01:02:00,62.1,55.2,30.39,South,191,1.0,2.0,78,0.00,,,0.00,0,Wunderground v.1.15,2013-08-25 05:02:00,
2013-08-25 01:05:00,62.0,55.4,30.39,South,191,1.0,2.0,79,0.00,,,0.00,0,Wunderground v.1.15,2013-08-25 05:05:00,
2013-08-25 01:07:00,61.9,55.3,30.39,South,191,1.0,2.0,79,0.00,,,0.00,0,Wunderground v.1.15,2013-08-25 05:07:00,
2013-08-25 01:09:00,61.8,55.2,30.39,South,191,1.0,2.0,79,0.00,,,0.00,0,Wunderground v.1.15,2013-08-25 05:09:00,
2013-08-25 01:12:00,61.8,55.6,30.39,South,191,1.0,2.0,80,0.00,,,0.00,0,Wunderground v.1.15,2013-08-25 05:12:00,
2013-08-25 01:15:00,61.7,55.5,30.39,South,191,1.0,2.0,80,0.00,,,0.00,0,Wunderground v.1.15,2013-08-25 05:15:00,
2013-08-25 01:16:00,61.7,55.5,30.39,South,191,1.0,2.0,80,0.00,,,0.00,0,Wunderground v.1.15,2013-08-25 05:16:00,
2013-08-25 01:18:00,61.7,55.5,30.39,South,191,1.0,2.0,80,0.00,,,0.00,0,Wunderground v.1.15,2013-08-25 05:18:00,
2013-08-25 01:19:00,61.6,55.4,30.39,South,191,1.0,2.0,80,0.00,,,0.00,0,Wunderground v.1.15,2013-08-25 05:19:00,
2013-08-25 01:21:00,61.6,55.4,30.39,South,191,1.0,2.0,80,0.00,,,0.00,0,Wunderground v.1.15,2013-08-25 05:21:00,
2013-08-25 01:23:00,61.6,55.4,30.39,South,191,1.0,2.0,80,0.00,,,0.00,0,Wunderground v.1.15,2013-08-25 05:23:00,
2013-08-25 01:28:00,61.5,55.3,30.39,South,191,0.0,2.0,80,0.00,,,0.00,0,Wunderground v.1.15,2013-08-25 05:28:00,
2013-08-25 01:29:00,61.5,55.3,30.39,South,191,0.0,2.0,80,0.00,,,0.00,0,Wunderground v.1.15,2013-08-25 05:29:00,
2013-08-25 01:31:00,61.4,55.5,30.39,South,191,0.0,2.0,81,0.00,,,0.00,0,Wunderground v.1.15,2013-08-25 05:31:00,
2013-08-25 01:32:00,61.4,55.5,30.39,South,191,0.0,2.0,81,0.00,,,0.00,0,Wunderground v.1.15,2013-08-25 05:32:00,
2013-08-25 01:35:00,61.2,55.3,30.39,South,191,0.0,2.0,81,0.00,,,0.00,0,Wunderground v.1.15,2013-08-25 05:35:00,
2013-08-25 01:38:00,60.9,55.4,30.39,South,191,0.0,2.0,82,0.00,,,0.00,0,Wunderground v.1.15,2013-08-25 05:38:00,
2013-08-25 01:39:00,60.8,55.3,30.39,South,191,1.0,2.0,82,0.00,,,0.00,0,Wunderground v.1.15,2013-08-25 05:39:00,
2013-08-25 01:41:00,60.7,55.5,30.39,South,191,1.0,2.0,83,0.00,,,0.00,0,Wunderground v.1.15,2013-08-25 05:41:00,
2013-08-25 01:42:00,60.7,55.5,30.39,South,191,1.0,2.0,83,0.00,,,0.00,0,Wunderground v.1.15,2013-08-25 05:42:00,
2013-08-25 01:44:00,60.6,55.4,30.39,South,191,1.0,2.0,83,0.00,,,0.00,0,Wunderground v.1.15,2013-08-25 05:44:00,
2013-08-25 01:47:00,60.5,55.6,30.39,South,191,0.0,2.0,84,0.00,,,0.00,0,Wunderground v.1.15,2013-08-25 05:47:00,
2013-08-25 01:49:00,60.5,55.6,30.39,South,191,0.0,2.0,84,0.00,,,0.00,0,Wunderground v.1.15,2013-08-25 05:49:00,
2013-08-25 01:50:00,60.4,55.5,30.39,South,191,0.0,2.0,84,0.00,,,0.00,0,Wunderground v.1.15,2013-08-25 05:50:00,
2013-08-25 01:53:00,60.3,55.4,30.39,South,191,0.0,2.0,84,0.00,,,0.00,0,Wunderground v.1.15,2013-08-25 05:53:00,
2013-08-25 01:54:00,60.3,55.4,30.39,South,191,0.0,2.0,84,0.00,,,0.00,0,Wunderground v.1.15,2013-08-25 05:54:00,
2013-08-25 01:56:00,60.2,55.0,30.39,South,191,0.0,2.0,83,0.00,,,0.00,0,Wunderground v.1.15,2013-08-25 05:56:00,
2013-08-25 01:57:00,60.1,54.9,30.39,South,191,0.0,2.0,83,0.00,,,0.00,0,Wunderground v.1.15,2013-08-25 05:57:00,
2013-08-25 02:01:00,60.0,55.2,30.39,South,191,0.0,0.0,84,0.00,,,0.00,0,Wunderground v.1.15,2013-08-25 06:01:00,
2013-08-25 02:02:00,59.9,55.1,30.39,South,191,0.0,0.0,84,0.00,,,0.00,0,Wunderground v.1.15,2013-08-25 06:02:00,
2013-08-25 02:04:00,59.9,55.4,30.39,South,191,0.0,0.0,85,0.00,,,0.00,0,Wunderground v.1.15,2013-08-25 06:04:00,
2013-08-25 02:07:00,59.8,55.6,30.39,South,191,0.0,0.0,86,0.00,,,0.00,0,Wunderground v.1.15,2013-08-25 06:07:00,
2013-08-25 02:08:00,59.7,55.5,30.39,South,191,0.0,0.0,86,0.00,,,0.00,0,Wunderground v.1.15,2013-08-25 06:08:00,
2013-08-25 02:11:00,59.7,55.5,30.39,South,191,0.0,0.0,86,0.00,,,0.00,0,Wunderground v.1.15,2013-08-25 06:11:00,
2013-08-25 02:13:00,59.6,55.4,30.39,South,191,0.0,1.0,86,0.00,,,0.00,0,Wunderground v.1.15,2013-08-25 06:13:00,
2013-08-25 02:15:00,59.6,55.4,30.39,South,191,0.0,1.0,86,0.00,,,0.00,0,Wunderground v.1.15,2013-08-25 06:15:00,
2013-08-25 02:17:00,59.5,55.3,30.39,South,191,0.0,1.0,86,0.00,,,0.00,0,Wunderground v.1.15,2013-08-25 06:17:00,
2013-08-25 02:19:00,59.5,55.6,30.39,South,191,0.0,1.0,87,0.00,,,0.00,0,Wunderground v.1.15,2013-08-25 06:19:00,
2013-08-25 02:20:00,59.4,55.5,30.39,South,191,0.0,0.0,87,0.00,,,0.00,0,Wunderground v.1.15,2013-08-25 06:20:00,
2013-08-25 02:22:00,59.4,55.5,30.39,South,191,0.0,0.0,87,0.00,,,0.00,0,Wunderground v.1.15,2013-08-25 06:22:00,
2013-08-25 02:23:00,59.3,55.4,30.39,South,191,0.0,0.0,87,0.00,,,0.00,0,Wunderground v.1.15,2013-08-25 06:23:00,
2013-08-25 02:25:00,59.3,55.4,30.39,South,191,0.0,1.0,87,0.00,,,0.00,0,Wunderground v.1.15,2013-08-25 06:25:00,
2013-08-25 02:26:00,59.2,55.3,30.38,South,191,0.0,1.0,87,0.00,,,0.00,0,Wunderground v.1.15,2013-08-25 06:26:00,
2013-08-25 02:27:00,59.1,55.2,30.38,South,191,0.0,1.0,87,0.00,,,0.00,0,Wunderground v.1.15,2013-08-25 06:27:00,
2013-08-25 02:31:00,59.0,55.1,30.39,South,191,0.0,1.0,87,0.00,,,0.00,0,Wunderground v.1.15,2013-08-25 06:31:00,
2013-08-25 02:32:00,58.9,55.0,30.39,South,191,0.0,1.0,87,0.00,,,0.00,0,Wunderground v.1.15,2013-08-25 06:32:00,
2013-08-25 02:33:00,58.9,55.0,30.38,South,191,0.0,1.0,87,0.00,,,0.00,0,Wunderground v.1.15,2013-08-25 06:33:00,
2013-08-25 02:35:00,58.9,55.0,30.38,South,191,0.0,1.0,87,0.00,,,0.00,0,Wunderground v.1.15,2013-08-25 06:35:00,
2013-08-25 02:37:00,58.8,55.3,30.39,South,191,0.0,1.0,88,0.00,,,0.00,0,Wunderground v.1.15,2013-08-25 06:37:00,
2013-08-25 02:38:00,58.8,55.3,30.39,South,191,0.0,1.0,88,0.00,,,0.00,0,Wunderground v.1.15,2013-08-25 06:38:00,
2013-08-25 02:39:00,58.8,55.3,30.39,South,191,0.0,1.0,88,0.00,,,0.00,0,Wunderground v.1.15,2013-08-25 06:39:00,
2013-08-25 02:41:00,58.7,55.2,30.39,South,191,0.0,0.0,88,0.00,,,0.00,0,Wunderground v.1.15,2013-08-25 06:41:00,
2013-08-25 02:44:00,58.7,55.2,30.39,South,191,0.0,1.0,88,0.00,,,0.00,0,Wunderground v.1.15,2013-08-25 06:44:00,
2013-08-25 02:45:00,58.6,55.1,30.39,South,191,0.0,1.0,88,0.00,,,0.00,0,Wunderground v.1.15,2013-08-25 06:45:00,
2013-08-25 02:46:00,58.6,55.1,30.39,South,191,0.0,1.0,88,0.00,,,0.00,0,Wunderground v.1.15,2013-08-25 06:46:00,
2013-08-25 02:51:00,58.6,55.1,30.39,South,191,0.0,0.0,88,0.00,,,0.00,0,Wunderground v.1.15,2013-08-25 06:51:00,
2013-08-25 02:52:00,58.5,55.0,30.39,South,191,0.0,0.0,88,0.00,,,0.00,0,Wunderground v.1.15,2013-08-25 06:52:00,
2013-08-25 02:53:00,58.5,55.0,30.39,South,191,0.0,0.0,88,0.00,,,0.00,0,Wunderground v.1.15,2013-08-25 06:53:00,
2013-08-25 02:55:00,58.5,55.0,30.39,South,191,0.0,0.0,88,0.00,,,0.00,0,Wunderground v.1.15,2013-08-25 06:55:00,
2013-08-25 02:57:00,58.4,54.9,30.39,South,191,0.0,0.0,88,0.00,,,0.00,0,Wunderground v.1.15,2013-08-25 06:57:00,
2013-08-25 02:58:00,58.4,54.9,30.40,South,191,0.0,0.0,88,0.00,,,0.00,0,Wunderground v.1.15,2013-08-25 06:58:00,
2013-08-25 02:59:00,58.3,54.8,30.40,South,191,0.0,0.0,88,0.00,,,0.00,0,Wunderground v.1.15,2013-08-25 06:59:00,
2013-08-25 03:02:00,58.2,54.7,30.40,South,191,0.0,0.0,88,0.00,,,0.00,0,Wunderground v.1.15,2013-08-25 07:02:00,
2013-08-25 03:03:00,58.2,54.7,30.40,South,191,0.0,0.0,88,0.00,,,0.00,0,Wunderground v.1.15,2013-08-25 07:03:00,
2013-08-25 03:04:00,58.2,54.7,30.40,South,191,0.0,0.0,88,0.00,,,0.00,0,Wunderground v.1.15,2013-08-25 07:04:00,
2013-08-25 03:05:00,58.2,54.7,30.40,South,191,0.0,0.0,88,0.00,,,0.00,0,Wunderground v.1.15,2013-08-25 07:05:00,
2013-08-25 03:07:00,58.1,54.6,30.40,South,191,0.0,0.0,88,0.00,,,0.00,0,Wunderground v.1.15,2013-08-25 07:07:00,
2013-08-25 03:08:00,58.1,54.6,30.40,South,191,0.0,0.0,88,0.00,,,0.00,0,Wunderground v.1.15,2013-08-25 07:08:00,
2013-08-25 03:10:00,58.0,54.8,30.40,South,191,0.0,0.0,89,0.00,,,0.00,0,Wunderground v.1.15,2013-08-25 07:10:00,
2013-08-25 03:11:00,58.0,54.8,30.40,South,191,0.0,0.0,89,0.00,,,0.00,0,Wunderground v.1.15,2013-08-25 07:11:00,
2013-08-25 03:13:00,58.0,54.8,30.40,South,191,0.0,0.0,89,0.00,,,0.00,0,Wunderground v.1.15,2013-08-25 07:13:00,
2013-08-25 03:17:00,58.0,55.1,30.40,South,191,0.0,1.0,90,0.00,,,0.00,0,Wunderground v.1.15,2013-08-25 07:17:00,
2013-08-25 03:18:00,58.0,55.1,30.40,South,191,0.0,1.0,90,0.00,,,0.00,0,Wunderground v.1.15,2013-08-25 07:18:00,
2013-08-25 03:19:00,58.0,55.1,30.40,South,191,0.0,1.0,90,0.00,,,0.00,0,Wunderground v.1.15,2013-08-25 07:19:00,
2013-08-25 03:21:00,57.9,55.0,30.40,South,191,0.0,0.0,90,0.00,,,0.00,0,Wunderground v.1.15,2013-08-25 07:21:00,
2013-08-25 03:24:00,57.8,54.9,30.40,South,191,0.0,0.0,90,0.00,,,0.00,0,Wunderground v.1.15,2013-08-25 07:24:00,
2013-08-25 03:25:00,57.8,54.9,30.40,South,191,0.0,0.0,90,0.00,,,0.00,0,Wunderground v.1.15,2013-08-25 07:25:00,
2013-08-25 03:26:00,57.8,54.9,30.40,South,191,0.0,0.0,90,0.00,,,0.00,0,Wunderground v.1.15,2013-08-25 07:26:00,
2013-08-25 03:29:00,57.7,54.8,30.40,South,191,0.0,0.0,90,0.00,,,0.00,0,Wunderground v.1.15,2013-08-25 07:29:00,
2013-08-25 03:30:00,57.6,54.7,30.40,South,191,0.0,0.0,90,0.00,,,0.00,0,Wunderground v.1.15,2013-08-25 07:30:00,
2013-08-25 03:31:00,57.6,54.7,30.40,South,191,0.0,0.0,90,0.00,,,0.00,0,Wunderground v.1.15,2013-08-25 07:31:00,
2013-08-25 03:33:00,57.5,54.6,30.40,South,191,0.0,0.0,90,0.00,,,0.00,0,Wunderground v.1.15,2013-08-25 07:33:00,
2013-08-25 03:37:00,57.5,54.6,30.40,South,191,0.0,0.0,90,0.00,,,0.00,0,Wunderground v.1.15,2013-08-25 07:37:00,
2013-08-25 03:38:00,57.4,54.5,30.40,South,191,0.0,0.0,90,0.00,,,0.00,0,Wunderground v.1.15,2013-08-25 07:38:00,
2013-08-25 03:39:00,57.4,54.5,30.40,South,191,0.0,0.0,90,0.00,,,0.00,0,Wunderground v.1.15,2013-08-25 07:39:00,
2013-08-25 03:41:00,57.3,54.4,30.40,South,191,0.0,0.0,90,0.00,,,0.00,0,Wunderground v.1.15,2013-08-25 07:41:00,
2013-08-25 03:44:00,57.3,54.4,30.40,South,191,0.0,0.0,90,0.00,,,0.00,0,Wunderground v.1.15,2013-08-25 07:44:00,
2013-08-25 03:45:00,57.2,54.3,30.40,South,191,0.0,0.0,90,0.00,,,0.00,0,Wunderground v.1.15,2013-08-25 07:45:00,
2013-08-25 03:48:00,57.1,54.2,30.40,South,191,0.0,0.0,90,0.00,,,0.00,0,Wunderground v.1.15,2013-08-25 07:48:00,
2013-08-25 03:49:00,57.1,54.2,30.40,South,191,0.0,0.0,90,0.00,,,0.00,0,Wunderground v.1.15,2013-08-25 07:49:00,
2013-08-25 03:51:00,57.1,54.2,30.40,South,191,0.0,0.0,90,0.00,,,0.00,0,Wunderground v.1.15,2013-08-25 07:51:00,
2013-08-25 03:55:00,56.9,54.0,30.40,South,191,0.0,0.0,90,0.00,,,0.00,0,Wunderground v.1.15,2013-08-25 07:55:00,
2013-08-25 03:57:00,56.9,54.0,30.40,South,191,0.0,0.0,90,0.00,,,0.00,0,Wunderground v.1.15,2013-08-25 07:57:00,
2013-08-25 03:59:00,56.9,54.0,30.40,South,191,0.0,0.0,90,0.00,,,0.00,0,Wunderground v.1.15,2013-08-25 07:59:00,
2013-08-25 04:00:00,56.8,53.9,30.40,South,191,0.0,0.0,90,0.00,,,0.00,0,Wunderground v.1.15,2013-08-25 08:00:00,
2013-08-25 04:02:00,56.8,53.9,30.40,South,191,0.0,0.0,90,0.00,,,0.00,0,Wunderground v.1.15,2013-08-25 08:02:00,
2013-08-25 04:03:00,56.8,53.9,30.40,South,191,0.0,0.0,90,0.00,,,0.00,0,Wunderground v.1.15,2013-08-25 08:03:00,
2013-08-25 04:07:00,56.8,54.2,30.40,South,191,0.0,0.0,91,0.00,,,0.00,0,Wunderground v.1.15,2013-08-25 08:07:00,
2013-08-25 04:08:00,56.7,54.1,30.40,South,191,0.0,0.0,91,0.00,,,0.00,0,Wunderground v.1.15,2013-08-25 08:08:00,
2013-08-25 04:09:00,56.7,54.1,30.40,South,191,0.0,0.0,91,0.00,,,0.00,0,Wunderground v.1.15,2013-08-25 08:09:00,
2013-08-25 04:12:00,56.7,54.1,30.40,South,191,0.0,0.0,91,0.00,,,0.00,0,Wunderground v.1.15,2013-08-25 08:12:00,
2013-08-25 04:13:00,56.6,54.0,30.40,South,191,0.0,0.0,91,0.00,,,0.00,0,Wunderground v.1.15,2013-08-25 08:13:00,
2013-08-25 04:15:00,56.6,54.0,30.40,South,191,0.0,0.0,91,0.00,,,0.00,0,Wunderground v.1.15,2013-08-25 08:15:00,
2013-08-25 04:16:00,56.6,54.0,30.40,South,191,0.0,0.0,91,0.00,,,0.00,0,Wunderground v.1.15,2013-08-25 08:16:00,
2013-08-25 04:19:00,56.5,53.9,30.41,South,191,0.0,0.0,91,0.00,,,0.00,0,Wunderground v.1.15,2013-08-25 08:19:00,
2013-08-25 04:20:00,56.4,53.8,30.41,South,191,0.0,0.0,91,0.00,,,0.00,0,Wunderground v.1.15,2013-08-25 08:20:00,
2013-08-25 04:22:00,56.4,53.8,30.41,South,191,0.0,0.0,91,0.00,,,0.00,0,Wunderground v.1.15,2013-08-25 08:22:00,
2013-08-25 04:23:00,56.4,53.8,30.41,South,191,0.0,0.0,91,0.00,,,0.00,0,Wunderground v.1.15,2013-08-25 08:23:00,
2013-08-25 04:28:00,56.2,53.6,30.41,South,191,0.0,0.0,91,0.00,,,0.00,0,Wunderground v.1.15,2013-08-25 08:28:00,
2013-08-25 04:29:00,56.2,53.6,30.41,South,191,0.0,0.0,91,0.00,,,0.00,0,Wunderground v.1.15,2013-08-25 08:29:00,
2013-08-25 04:32:00,56.2,53.9,30.41,South,191,0.0,0.0,92,0.00,,,0.00,0,Wunderground v.1.15,2013-08-25 08:32:00,
2013-08-25 04:35:00,56.2,53.9,30.41,South,191,0.0,0.0,92,0.00,,,0.00,0,Wunderground v.1.15,2013-08-25 08:35:00,
2013-08-25 04:36:00,56.2,53.9,30.41,South,191,0.0,0.0,92,0.00,,,0.00,0,Wunderground v.1.15,2013-08-25 08:36:00,
2013-08-25 04:39:00,56.2,53.9,30.42,South,191,0.0,0.0,92,0.00,,,0.00,0,Wunderground v.1.15,2013-08-25 08:39:00,
2013-08-25 04:40:00,56.2,53.9,30.42,South,191,0.0,0.0,92,0.00,,,0.00,0,Wunderground v.1.15,2013-08-25 08:40:00,
2013-08-25 04:41:00,56.2,53.9,30.42,South,191,0.0,0.0,92,0.00,,,0.00,0,Wunderground v.1.15,2013-08-25 08:41:00,
2013-08-25 04:42:00,56.2,53.9,30.42,South,191,0.0,0.0,92,0.00,,,0.00,0,Wunderground v.1.15,2013-08-25 08:42:00,
2013-08-25 04:45:00,56.2,53.9,30.42,South,191,0.0,0.0,92,0.00,,,0.00,0,Wunderground v.1.15,2013-08-25 08:45:00,
2013-08-25 04:48:00,56.2,54.2,30.42,South,191,0.0,0.0,93,0.00,,,0.00,0,Wunderground v.1.15,2013-08-25 08:48:00,
2013-08-25 04:49:00,56.2,54.2,30.42,South,191,0.0,0.0,93,0.00,,,0.00,0,Wunderground v.1.15,2013-08-25 08:49:00,
2013-08-25 04:51:00,56.2,54.2,30.42,South,191,0.0,0.0,93,0.00,,,0.00,0,Wunderground v.1.15,2013-08-25 08:51:00,
2013-08-25 04:54:00,56.1,54.1,30.42,South,191,0.0,0.0,93,0.00,,,0.00,0,Wunderground v.1.15,2013-08-25 08:54:00,
2013-08-25 04:57:00,56.1,54.1,30.42,South,191,0.0,0.0,93,0.00,,,0.00,0,Wunderground v.1.15,2013-08-25 08:57:00,
2013-08-25 04:59:00,56.0,54.0,30.42,South,191,0.0,0.0,93,0.00,,,0.00,0,Wunderground v.1.15,2013-08-25 08:59:00,
2013-08-25 05:00:00,56.0,54.0,30.42,South,191,0.0,0.0,93,0.00,,,0.00,0,Wunderground v.1.15,2013-08-25 09:00:00,
2013-08-25 05:01:00,56.0,54.0,30.42,South,191,0.0,0.0,93,0.00,,,0.00,0,Wunderground v.1.15,2013-08-25 09:01:00,
2013-08-25 05:04:00,56.0,54.0,30.42,South,191,0.0,0.0,93,0.00,,,0.00,0,Wunderground v.1.15,2013-08-25 09:04:00,
2013-08-25 05:07:00,55.9,53.6,30.42,South,191,0.0,0.0,92,0.00,,,0.00,0,Wunderground v.1.15,2013-08-25 09:07:00,
2013-08-25 05:08:00,55.9,53.9,30.42,South,191,0.0,0.0,93,0.00,,,0.00,0,Wunderground v.1.15,2013-08-25 09:08:00,
2013-08-25 05:10:00,55.9,53.9,30.42,South,191,0.0,0.0,93,0.00,,,0.00,0,Wunderground v.1.15,2013-08-25 09:10:00,
2013-08-25 05:11:00,55.9,53.9,30.42,South,191,0.0,0.0,93,0.00,,,0.00,0,Wunderground v.1.15,2013-08-25 09:11:00,
2013-08-25 05:12:00,55.9,53.9,30.42,South,191,0.0,0.0,93,0.00,,,0.00,0,Wunderground v.1.15,2013-08-25 09:12:00,
2013-08-25 05:13:00,55.8,53.8,30.42,South,191,0.0,0.0,93,0.00,,,0.00,0,Wunderground v.1.15,2013-08-25 09:13:00,
2013-08-25 05:15:00,55.8,53.8,30.42,South,191,0.0,0.0,93,0.00,,,0.00,0,Wunderground v.1.15,2013-08-25 09:15:00,
2013-08-25 05:17:00,55.8,53.8,30.43,South,191,0.0,0.0,93,0.00,,,0.00,0,Wunderground v.1.15,2013-08-25 09:17:00,
2013-08-25 05:18:00,55.8,53.8,30.43,South,191,0.0,0.0,93,0.00,,,0.00,0,Wunderground v.1.15,2013-08-25 09:18:00,
2013-08-25 05:19:00,55.8,53.8,30.43,South,191,0.0,0.0,93,0.00,,,0.00,0,Wunderground v.1.15,2013-08-25 09:19:00,
2013-08-25 05:23:00,55.7,53.7,30.43,South,191,0.0,0.0,93,0.00,,,0.00,0,Wunderground v.1.15,2013-08-25 09:23:00,
2013-08-25 05:25:00,55.7,53.7,30.43,South,191,0.0,0.0,93,0.00,,,0.00,0,Wunderground v.1.15,2013-08-25 09:25:00,
2013-08-25 05:27:00,55.6,53.6,30.43,South,191,0.0,0.0,93,0.00,,,0.00,0,Wunderground v.1.15,2013-08-25 09:27:00,
2013-08-25 05:29:00,55.6,53.6,30.43,South,191,0.0,0.0,93,0.00,,,0.00,0,Wunderground v.1.15,2013-08-25 09:29:00,
2013-08-25 05:30:00,55.6,53.6,30.43,South,191,0.0,0.0,93,0.00,,,0.00,0,Wunderground v.1.15,2013-08-25 09:30:00,
2013-08-25 05:32:00,55.5,53.5,30.43,South,191,0.0,0.0,93,0.00,,,0.00,0,Wunderground v.1.15,2013-08-25 09:32:00,
2013-08-25 05:34:00,55.5,53.5,30.43,South,191,0.0,0.0,93,0.00,,,0.00,0,Wunderground v.1.15,2013-08-25 09:34:00,
2013-08-25 05:35:00,55.5,53.5,30.43,South,191,0.0,0.0,93,0.00,,,0.00,0,Wunderground v.1.15,2013-08-25 09:35:00,
2013-08-25 05:39:00,55.4,53.4,30.43,South,191,0.0,1.0,93,0.00,,,0.00,0,Wunderground v.1.15,2013-08-25 09:39:00,
2013-08-25 05:40:00,55.4,53.4,30.43,South,191,0.0,2.0,93,0.00,,,0.00,0,Wunderground v.1.15,2013-08-25 09:40:00,
2013-08-25 05:42:00,55.3,53.3,30.43,South,191,0.0,2.0,93,0.00,,,0.00,0,Wunderground v.1.15,2013-08-25 09:42:00,
2013-08-25 05:44:00,55.3,53.3,30.43,South,191,1.0,2.0,93,0.00,,,0.00,0,Wunderground v.1.15,2013-08-25 09:44:00,
2013-08-25 05:45:00,55.3,53.3,30.43,South,191,1.0,2.0,93,0.00,,,0.00,0,Wunderground v.1.15,2013-08-25 09:45:00,
2013-08-25 05:49:00,55.2,53.2,30.43,South,191,1.0,2.0,93,0.00,,,0.00,0,Wunderground v.1.15,2013-08-25 09:49:00,
2013-08-25 05:50:00,55.2,53.2,30.43,South,191,1.0,1.0,93,0.00,,,0.00,0,Wunderground v.1.15,2013-08-25 09:50:00,
2013-08-25 05:52:00,55.2,53.2,30.43,South,191,0.0,1.0,93,0.00,,,0.00,0,Wunderground v.1.15,2013-08-25 09:52:00,
2013-08-25 05:53:00,55.1,53.1,30.43,South,191,0.0,1.0,93,0.00,,,0.00,0,Wunderground v.1.15,2013-08-25 09:53:00,
2013-08-25 05:56:00,55.0,53.0,30.43,South,191,0.0,1.0,93,0.00,,,0.00,0,Wunderground v.1.15,2013-08-25 09:56:00,
2013-08-25 06:01:00,55.0,53.0,30.43,South,191,1.0,1.0,93,0.00,,,0.00,0,Wunderground v.1.15,2013-08-25 10:01:00,
2013-08-25 06:02:00,55.0,53.0,30.44,South,191,1.0,2.0,93,0.00,,,0.00,0,Wunderground v.1.15,2013-08-25 10:02:00,
2013-08-25 06:06:00,54.9,53.2,30.44,SSW,212,1.0,2.0,94,0.00,,,0.00,0,Wunderground v.1.15,2013-08-25 10:06:00,
2013-08-25 06:09:00,55.0,53.3,30.44,SSW,206,1.0,2.0,94,0.00,,,0.00,0,Wunderground v.1.15,2013-08-25 10:09:00,
2013-08-25 06:10:00,55.0,53.6,30.44,SSW,206,1.0,2.0,95,0.00,,,0.00,0,Wunderground v.1.15,2013-08-25 10:10:00,
2013-08-25 06:11:00,55.0,53.6,30.44,SSW,206,1.0,1.0,95,0.00,,,0.00,0,Wunderground v.1.15,2013-08-25 10:11:00,
2013-08-25 06:12:00,55.0,53.6,30.44,SSW,206,1.0,1.0,95,0.00,,,0.00,0,Wunderground v.1.15,2013-08-25 10:12:00,
2013-08-25 06:14:00,55.0,53.6,30.44,SSW,206,1.0,1.0,95,0.00,,,0.00,0,Wunderground v.1.15,2013-08-25 10:14:00,
2013-08-25 06:17:00,55.0,53.6,30.44,SSW,206,1.0,1.0,95,0.00,,,0.00,0,Wunderground v.1.15,2013-08-25 10:17:00,
2013-08-25 06:19:00,55.0,53.6,30.44,SSW,206,0.0,1.0,95,0.00,,,0.00,0,Wunderground v.1.15,2013-08-25 10:19:00,
2013-08-25 06:20:00,55.0,53.6,30.44,SSW,206,0.0,1.0,95,0.00,,,0.00,0,Wunderground v.1.15,2013-08-25 10:20:00,
2013-08-25 06:21:00,55.0,53.6,30.44,SSW,206,0.0,1.0,95,0.00,,,0.00,0,Wunderground v.1.15,2013-08-25 10:21:00,
2013-08-25 06:23:00,55.1,53.7,30.44,SSW,206,0.0,1.0,95,0.00,,,0.00,0,Wunderground v.1.15,2013-08-25 10:23:00,
2013-08-25 06:24:00,55.1,53.7,30.44,SSW,206,0.0,1.0,95,0.00,,,0.00,0,Wunderground v.1.15,2013-08-25 10:24:00,
2013-08-25 06:25:00,55.1,53.7,30.44,SSW,206,0.0,1.0,95,0.00,,,0.00,0,Wunderground v.1.15,2013-08-25 10:25:00,
2013-08-25 06:26:00,55.1,53.7,30.44,SSW,206,0.0,1.0,95,0.00,,,0.00,0,Wunderground v.1.15,2013-08-25 10:26:00,
2013-08-25 06:29:00,55.1,53.7,30.44,SSW,206,0.0,1.0,95,0.00,,,0.00,0,Wunderground v.1.15,2013-08-25 10:29:00,
2013-08-25 06:30:00,55.1,53.7,30.44,SSW,206,0.0,1.0,95,0.00,,,0.00,5,Wunderground v.1.15,2013-08-25 10:30:00,
2013-08-25 06:32:00,55.1,53.7,30.44,SSW,206,0.0,1.0,95,0.00,,,0.00,5,Wunderground v.1.15,2013-08-25 10:32:00,
2013-08-25 06:34:00,55.1,53.7,30.45,SSW,206,0.0,1.0,95,0.00,,,0.00,7,Wunderground v.1.15,2013-08-25 10:34:00,
2013-08-25 06:35:00,55.1,53.7,30.44,SSW,206,0.0,1.0,95,0.00,,,0.00,7,Wunderground v.1.15,2013-08-25 10:35:00,
2013-08-25 06:38:00,55.0,53.6,30.45,SSW,206,0.0,1.0,95,0.00,,,0.00,9,Wunderground v.1.15,2013-08-25 10:38:00,
2013-08-25 06:39:00,55.0,53.6,30.45,SSW,206,0.0,1.0,95,0.00,,,0.00,9,Wunderground v.1.15,2013-08-25 10:39:00,
2013-08-25 06:41:00,55.0,53.6,30.45,SSW,206,0.0,1.0,95,0.00,,,0.00,11,Wunderground v.1.15,2013-08-25 10:41:00,
2013-08-25 06:43:00,55.0,53.6,30.45,SSW,206,0.0,1.0,95,0.00,,,0.00,11,Wunderground v.1.15,2013-08-25 10:43:00,
2013-08-25 06:44:00,55.0,53.6,30.45,SSW,206,0.0,1.0,95,0.00,,,0.00,11,Wunderground v.1.15,2013-08-25 10:44:00,
2013-08-25 06:48:00,54.8,53.1,30.46,SSW,206,0.0,1.0,94,0.00,,,0.00,14,Wunderground v.1.15,2013-08-25 10:48:00,
2013-08-25 06:51:00,54.7,53.0,30.46,SSW,206,0.0,1.0,94,0.00,,,0.00,16,Wunderground v.1.15,2013-08-25 10:51:00,
2013-08-25 06:52:00,54.6,52.9,30.46,SSW,206,0.0,1.0,94,0.00,,,0.00,16,Wunderground v.1.15,2013-08-25 10:52:00,
2013-08-25 06:57:00,54.5,53.1,30.46,SSW,206,0.0,1.0,95,0.00,,,0.00,18,Wunderground v.1.15,2013-08-25 10:57:00,
2013-08-25 06:58:00,54.4,53.0,30.46,SSW,206,0.0,1.0,95,0.00,,,0.00,18,Wunderground v.1.15,2013-08-25 10:58:00,
2013-08-25 06:59:00,54.4,53.0,30.46,SSW,206,0.0,1.0,95,0.00,,,0.00,18,Wunderground v.1.15,2013-08-25 10:59:00,
2013-08-25 07:00:00,54.3,52.9,30.46,SSW,206,0.0,0.0,95,0.00,,,0.00,18,Wunderground v.1.15,2013-08-25 11:00:00,
2013-08-25 07:05:00,54.3,52.9,30.47,SSW,206,0.0,0.0,95,0.00,,,0.00,19,Wunderground v.1.15,2013-08-25 11:05:00,
2013-08-25 07:06:00,54.3,52.9,30.47,SSW,206,0.0,0.0,95,0.00,,,0.00,19,Wunderground v.1.15,2013-08-25 11:06:00,
2013-08-25 07:07:00,54.3,52.9,30.47,SSW,206,0.0,0.0,95,0.00,,,0.00,21,Wunderground v.1.15,2013-08-25 11:07:00,
2013-08-25 07:11:00,54.2,52.8,30.46,SSW,206,0.0,0.0,95,0.00,,,0.00,35,Wunderground v.1.15,2013-08-25 11:11:00,
2013-08-25 07:12:00,54.2,52.8,30.47,SSW,206,0.0,0.0,95,0.00,,,0.00,40,Wunderground v.1.15,2013-08-25 11:12:00,
2013-08-25 07:13:00,54.1,52.7,30.47,SSW,206,0.0,0.0,95,0.00,,,0.00,40,Wunderground v.1.15,2013-08-25 11:13:00,
2013-08-25 07:15:00,54.1,52.7,30.47,SSW,206,0.0,0.0,95,0.00,,,0.00,54,Wunderground v.1.15,2013-08-25 11:15:00,
2013-08-25 07:18:00,54.1,52.7,30.47,SSW,206,0.0,0.0,95,0.00,,,0.00,67,Wunderground v.1.15,2013-08-25 11:18:00,
2013-08-25 07:19:00,54.1,52.7,30.47,North,350,0.0,0.0,95,0.00,,,0.00,62,Wunderground v.1.15,2013-08-25 11:19:00,
2013-08-25 07:21:00,54.1,52.7,30.47,North,350,0.0,0.0,95,0.00,,,0.00,65,Wunderground v.1.15,2013-08-25 11:21:00,
2013-08-25 07:23:00,54.2,52.8,30.47,North,350,0.0,0.0,95,0.00,,,0.00,58,Wunderground v.1.15,2013-08-25 11:23:00,
2013-08-25 07:26:00,54.3,52.9,30.47,North,350,0.0,0.0,95,0.00,,,0.00,63,Wunderground v.1.15,2013-08-25 11:26:00,
2013-08-25 07:27:00,54.3,53.2,30.47,North,350,0.0,0.0,96,0.00,,,0.00,65,Wunderground v.1.15,2013-08-25 11:27:00,
2013-08-25 07:29:00,54.3,53.2,30.47,SSW,213,0.0,0.0,96,0.00,,,0.00,51,Wunderground v.1.15,2013-08-25 11:29:00,
2013-08-25 07:32:00,54.3,52.9,30.46,SW,217,0.0,2.0,95,0.00,,,0.00,56,Wunderground v.1.15,2013-08-25 11:32:00,
2013-08-25 07:34:00,54.2,53.1,30.46,SSW,203,1.0,2.0,96,0.00,,,0.00,54,Wunderground v.1.15,2013-08-25 11:34:00,
2013-08-25 07:38:00,54.2,53.1,30.46,SSW,211,1.0,2.0,96,0.00,,,0.00,74,Wunderground v.1.15,2013-08-25 11:38:00,
2013-08-25 07:40:00,54.2,53.1,30.46,SSW,211,1.0,1.0,96,0.00,,,0.00,70,Wunderground v.1.15,2013-08-25 11:40:00,
2013-08-25 07:41:00,54.2,53.1,30.46,SSW,212,1.0,1.0,96,0.00,,,0.00,63,Wunderground v.1.15,2013-08-25 11:41:00,
2013-08-25 07:44:00,54.2,53.1,30.47,SSW,212,1.0,2.0,96,0.00,,,0.00,69,Wunderground v.1.15,2013-08-25 11:44:00,
2013-08-25 07:45:00,54.2,53.1,30.47,SSW,212,1.0,2.0,96,0.00,,,0.00,74,Wunderground v.1.15,2013-08-25 11:45:00,
2013-08-25 07:46:00,54.2,53.1,30.47,SSW,199,1.0,4.0,96,0.00,,,0.00,72,Wunderground v.1.15,2013-08-25 11:46:00,
2013-08-25 07:49:00,54.3,53.2,30.47,SSW,200,1.0,4.0,96,0.00,,,0.00,76,Wunderground v.1.15,2013-08-25 11:49:00,
2013-08-25 07:52:00,54.4,53.3,30.47,SSW,200,2.0,2.0,96,0.00,,,0.00,76,Wunderground v.1.15,2013-08-25 11:52:00,
2013-08-25 07:54:00,54.5,53.4,30.47,SSW,200,2.0,2.0,96,0.00,,,0.00,74,Wunderground v.1.15,2013-08-25 11:54:00,
2013-08-25 07:56:00,54.5,53.4,30.47,SSW,200,2.0,2.0,96,0.00,,,0.00,81,Wunderground v.1.15,2013-08-25 11:56:00,
2013-08-25 07:59:00,54.6,53.5,30.47,South,190,1.0,2.0,96,0.00,,,0.00,81,Wunderground v.1.15,2013-08-25 11:59:00,
2013-08-25 08:01:00,54.7,53.6,30.47,South,190,1.0,2.0,96,0.00,,,0.00,83,Wunderground v.1.15,2013-08-25 12:01:00,
2013-08-25 08:05:00,54.8,53.7,30.47,South,190,1.0,2.0,96,0.00,,,0.00,79,Wunderground v.1.15,2013-08-25 12:05:00,
2013-08-25 08:06:00,54.8,53.7,30.47,South,190,1.0,2.0,96,0.00,,,0.00,79,Wunderground v.1.15,2013-08-25 12:06:00,
2013-08-25 08:07:00,54.8,53.7,30.47,South,190,1.0,2.0,96,0.00,,,0.00,83,Wunderground v.1.15,2013-08-25 12:07:00,
2013-08-25 08:12:00,54.9,53.5,30.47,NNW,329,0.0,2.0,95,0.00,,,0.00,76,Wunderground v.1.15,2013-08-25 12:12:00,
2013-08-25 08:14:00,55.0,53.6,30.47,SSW,200,0.0,2.0,95,0.00,,,0.00,69,Wunderground v.1.15,2013-08-25 12:14:00,
2013-08-25 08:16:00,55.1,53.7,30.47,SSW,199,1.0,2.0,95,0.00,,,0.00,69,Wunderground v.1.15,2013-08-25 12:16:00,
2013-08-25 08:20:00,55.3,53.9,30.47,South,174,1.0,1.0,95,0.00,,,0.00,104,Wunderground v.1.15,2013-08-25 12:20:00,
2013-08-25 08:21:00,55.3,53.9,30.47,South,174,1.0,2.0,95,0.00,,,0.00,202,Wunderground v.1.15,2013-08-25 12:21:00,
2013-08-25 08:23:00,55.5,54.1,30.47,South,174,1.0,2.0,95,0.00,,,0.00,134,Wunderground v.1.15,2013-08-25 12:23:00,
2013-08-25 08:24:00,55.5,54.1,30.47,South,174,1.0,2.0,95,0.00,,,0.00,213,Wunderground v.1.15,2013-08-25 12:24:00,
2013-08-25 08:25:00,55.5,54.1,30.47,South,174,1.0,2.0,95,0.00,,,0.00,174,Wunderground v.1.15,2013-08-25 12:25:00,
2013-08-25 08:26:00,55.6,54.2,30.47,South,174,1.0,2.0,95,0.00,,,0.00,125,Wunderground v.1.15,2013-08-25 12:26:00,
2013-08-25 08:27:00,55.7,54.3,30.47,South,174,1.0,2.0,95,0.00,,,0.00,125,Wunderground v.1.15,2013-08-25 12:27:00,
2013-08-25 08:30:00,56.0,54.6,30.47,South,174,1.0,2.0,95,0.00,,,0.00,267,Wunderground v.1.15,2013-08-25 12:30:00,
2013-08-25 08:33:00,56.3,54.6,30.47,SSE,165,1.0,2.0,94,0.00,,,0.00,348,Wunderground v.1.15,2013-08-25 12:33:00,
2013-08-25 08:35:00,56.4,54.7,30.47,SSE,165,1.0,2.0,94,0.00,,,0.00,327,Wunderground v.1.15,2013-08-25 12:35:00,
2013-08-25 08:36:00,56.6,54.9,30.47,SSW,204,2.0,2.0,94,0.00,,,0.00,385,Wunderground v.1.15,2013-08-25 12:36:00,
2013-08-25 08:37:00,56.7,55.0,30.47,SE,142,2.0,4.0,94,0.00,,,0.00,374,Wunderground v.1.15,2013-08-25 12:37:00,
2013-08-25 08:39:00,56.8,54.8,30.47,SSE,148,2.0,4.0,93,0.00,,,0.00,381,Wunderground v.1.15,2013-08-25 12:39:00,
2013-08-25 08:41:00,57.0,55.0,30.47,South,184,2.0,2.0,93,0.00,,,0.00,390,Wunderground v.1.15,2013-08-25 12:41:00,
2013-08-25 08:44:00,57.3,55.0,30.47,South,191,2.0,4.0,92,0.00,,,0.00,406,Wunderground v.1.15,2013-08-25 12:44:00,
2013-08-25 08:46:00,57.6,55.3,30.47,SSW,194,2.0,4.0,92,0.00,,,0.00,417,Wunderground v.1.15,2013-08-25 12:46:00,
2013-08-25 08:48:00,57.7,55.1,30.47,SSW,199,2.0,4.0,91,0.00,,,0.00,406,Wunderground v.1.15,2013-08-25 12:48:00,
2013-08-25 08:49:00,57.8,55.2,30.47,South,191,2.0,4.0,91,0.00,,,0.00,410,Wunderground v.1.15,2013-08-25 12:49:00,
2013-08-25 08:52:00,58.2,55.6,30.47,SE,141,2.0,2.0,91,0.00,,,0.00,408,Wunderground v.1.15,2013-08-25 12:52:00,
2013-08-25 08:55:00,58.5,55.6,30.47,South,173,2.0,2.0,90,0.00,,,0.00,408,Wunderground v.1.15,2013-08-25 12:55:00,
2013-08-25 08:59:00,58.9,56.0,30.47,South,171,1.0,4.0,90,0.00,,,0.00,427,Wunderground v.1.15,2013-08-25 12:59:00,
2013-08-25 09:00:00,59.0,55.8,30.47,South,171,1.0,1.0,89,0.00,,,0.00,415,Wunderground v.1.15,2013-08-25 13:00:00,
2013-08-25 09:01:00,59.1,55.5,30.47,SW,232,1.0,2.0,88,0.00,,,0.00,403,Wunderground v.1.15,2013-08-25 13:01:00,
2013-08-25 09:05:00,59.6,56.4,30.46,SSE,157,2.0,5.0,89,0.00,,,0.00,438,Wunderground v.1.15,2013-08-25 13:05:00,
2013-08-25 09:07:00,59.8,56.2,30.46,South,190,2.0,5.0,88,0.00,,,0.00,446,Wunderground v.1.15,2013-08-25 13:07:00,
2013-08-25 09:12:00,60.2,56.0,30.46,SSE,157,3.0,3.0,86,0.00,,,0.00,452,Wunderground v.1.15,2013-08-25 13:12:00,
2013-08-25 09:13:00,60.3,56.1,30.46,South,178,3.0,3.0,86,0.00,,,0.00,471,Wunderground v.1.15,2013-08-25 13:13:00,
2013-08-25 09:14:00,60.4,55.9,30.46,SE,145,3.0,4.0,85,0.00,,,0.00,471,Wunderground v.1.15,2013-08-25 13:14:00,
2013-08-25 09:15:00,60.4,55.5,30.46,South,175,3.0,4.0,84,0.00,,,0.00,468,Wunderground v.1.15,2013-08-25 13:15:00,
2013-08-25 09:19:00,60.6,55.7,30.46,SE,142,2.0,4.0,84,0.00,,,0.00,478,Wunderground v.1.15,2013-08-25 13:19:00,
2013-08-25 09:20:00,60.7,55.8,30.46,SE,145,2.0,4.0,84,0.00,,,0.00,478,Wunderground v.1.15,2013-08-25 13:20:00,
2013-08-25 09:22:00,60.9,56.0,30.46,SSE,159,2.0,4.0,84,0.00,,,0.00,475,Wunderground v.1.15,2013-08-25 13:22:00,
2013-08-25 09:24:00,61.2,56.7,30.46,SE,138,2.0,4.0,85,0.00,,,0.00,483,Wunderground v.1.15,2013-08-25 13:24:00,
2013-08-25 09:25:00,61.4,56.5,30.46,SSE,163,2.0,4.0,84,0.00,,,0.00,487,Wunderground v.1.15,2013-08-25 13:25:00,
2013-08-25 09:28:00,61.6,56.4,30.46,SSE,167,2.0,4.0,83,0.00,,,0.00,334,Wunderground v.1.15,2013-08-25 13:28:00,
2013-08-25 09:30:00,61.7,56.1,30.46,SSE,161,2.0,2.0,82,0.00,,,0.00,503,Wunderground v.1.15,2013-08-25 13:30:00,
2013-08-25 09:31:00,61.8,56.2,30.46,SSE,161,2.0,2.0,82,0.00,,,0.00,471,Wunderground v.1.15,2013-08-25 13:31:00,
2013-08-25 09:32:00,61.8,56.2,30.46,SSE,167,2.0,2.0,82,0.00,,,0.00,415,Wunderground v.1.15,2013-08-25 13:32:00,
2013-08-25 09:34:00,61.9,55.7,30.46,East,98,2.0,2.0,80,0.00,,,0.00,520,Wunderground v.1.15,2013-08-25 13:34:00,
2013-08-25 09:37:00,62.3,56.4,30.46,South,184,1.0,2.0,81,0.00,,,0.00,529,Wunderground v.1.15,2013-08-25 13:37:00,
2013-08-25 09:38:00,62.5,56.6,30.46,SSE,163,1.0,2.0,81,0.00,,,0.00,531,Wunderground v.1.15,2013-08-25 13:38:00,
2013-08-25 09:39:00,62.6,56.3,30.46,SSW,198,1.0,2.0,80,0.00,,,0.00,533,Wunderground v.1.15,2013-08-25 13:39:00,
2013-08-25 09:41:00,62.8,56.2,30.46,SSW,204,1.0,2.0,79,0.00,,,0.00,547,Wunderground v.1.15,2013-08-25 13:41:00,
2013-08-25 09:42:00,62.9,56.6,30.46,South,188,1.0,4.0,80,0.00,,,0.00,550,Wunderground v.1.15,2013-08-25 13:42:00,
2013-08-25 09:44:00,63.1,57.2,30.46,South,177,1.0,4.0,81,0.00,,,0.00,527,Wunderground v.1.15,2013-08-25 13:44:00,
2013-08-25 09:49:00,63.7,56.4,30.46,SE,146,2.0,4.0,77,0.00,,,0.00,563,Wunderground v.1.15,2013-08-25 13:49:00,
2013-08-25 09:50:00,63.8,56.4,30.46,SSE,154,2.0,2.0,77,0.00,,,0.00,564,Wunderground v.1.15,2013-08-25 13:50:00,
2013-08-25 09:54:00,64.1,57.1,30.46,SE,142,2.0,2.0,78,0.00,,,0.00,573,Wunderground v.1.15,2013-08-25 13:54:00,
2013-08-25 09:55:00,64.2,56.8,30.46,East,82,2.0,2.0,77,0.00,,,0.00,577,Wunderground v.1.15,2013-08-25 13:55:00,
2013-08-25 09:56:00,64.5,57.1,30.46,South,176,2.0,4.0,77,0.00,,,0.00,580,Wunderground v.1.15,2013-08-25 13:56:00,
2013-08-25 09:57:00,64.5,56.8,30.46,South,182,2.0,4.0,76,0.00,,,0.00,584,Wunderground v.1.15,2013-08-25 13:57:00,
2013-08-25 09:58:00,64.7,57.0,30.47,SSW,197,2.0,4.0,76,0.00,,,0.00,591,Wunderground v.1.15,2013-08-25 13:58:00,
2013-08-25 10:00:00,64.9,57.2,30.47,NNE,24,1.0,2.0,76,0.00,,,0.00,603,Wunderground v.1.15,2013-08-25 14:00:00,
2013-08-25 10:01:00,65.0,57.2,30.47,ENE,65,1.0,2.0,76,0.00,,,0.00,599,Wunderground v.1.15,2013-08-25 14:01:00,
2013-08-25 10:05:00,65.6,57.5,30.46,ESE,123,1.0,3.0,75,0.00,,,0.00,589,Wunderground v.1.15,2013-08-25 14:05:00,
2013-08-25 10:07:00,65.9,57.7,30.46,SE,144,2.0,4.0,75,0.00,,,0.00,642,Wunderground v.1.15,2013-08-25 14:07:00,
2013-08-25 10:08:00,66.1,57.6,30.46,SSE,163,2.0,4.0,74,0.00,,,0.00,626,Wunderground v.1.15,2013-08-25 14:08:00,
2013-08-25 10:12:00,66.6,57.3,30.46,SE,144,2.0,4.0,72,0.00,,,0.00,638,Wunderground v.1.15,2013-08-25 14:12:00,
2013-08-25 10:13:00,66.7,57.8,30.46,SE,144,2.0,4.0,73,0.00,,,0.00,640,Wunderground v.1.15,2013-08-25 14:13:00,
2013-08-25 10:14:00,66.8,57.9,30.46,South,176,2.0,5.0,73,0.00,,,0.00,642,Wunderground v.1.15,2013-08-25 14:14:00,
2013-08-25 10:16:00,66.8,57.5,30.46,SSE,159,2.0,5.0,72,0.00,,,0.00,640,Wunderground v.1.15,2013-08-25 14:16:00,
2013-08-25 10:20:00,67.1,57.8,30.46,SE,143,2.0,3.0,72,0.00,,,0.00,647,Wunderground v.1.15,2013-08-25 14:20:00,
2013-08-25 10:21:00,67.1,57.4,30.46,SSE,150,2.0,3.0,71,0.00,,,0.00,650,Wunderground v.1.15,2013-08-25 14:21:00,
2013-08-25 10:22:00,67.2,57.9,30.46,SSE,158,2.0,3.0,72,0.00,,,0.00,649,Wunderground v.1.15,2013-08-25 14:22:00,
2013-08-25 10:23:00,67.2,57.9,30.46,SSE,156,3.0,3.0,72,0.00,,,0.00,659,Wunderground v.1.15,2013-08-25 14:23:00,
2013-08-25 10:26:00,67.3,58.0,30.46,SE,144,3.0,4.0,72,0.00,,,0.00,679,Wunderground v.1.15,2013-08-25 14:26:00,
2013-08-25 10:27:00,67.4,57.7,30.46,SE,132,3.0,4.0,71,0.00,,,0.00,647,Wunderground v.1.15,2013-08-25 14:27:00,
2013-08-25 10:31:00,67.6,57.9,30.45,ESE,113,2.0,2.0,71,0.00,,,0.00,682,Wunderground v.1.15,2013-08-25 14:31:00,
2013-08-25 10:32:00,67.7,58.0,30.45,ESE,113,2.0,2.0,71,0.00,,,0.00,691,Wunderground v.1.15,2013-08-25 14:32:00,
2013-08-25 10:34:00,67.9,58.1,30.45,SSE,151,2.0,4.0,71,0.00,,,0.00,691,Wunderground v.1.15,2013-08-25 14:34:00,
2013-08-25 10:36:00,68.0,57.8,30.45,SSE,153,2.0,4.0,70,0.00,,,0.00,606,Wunderground v.1.15,2013-08-25 14:36:00,
2013-08-25 10:37:00,68.1,58.3,30.45,SE,134,2.0,4.0,71,0.00,,,0.00,529,Wunderground v.1.15,2013-08-25 14:37:00,
2013-08-25 10:39:00,68.3,58.5,30.45,SSW,200,2.0,5.0,71,0.00,,,0.00,700,Wunderground v.1.15,2013-08-25 14:39:00,
2013-08-25 10:40:00,68.4,58.6,30.45,SSE,149,2.0,4.0,71,0.00,,,0.00,700,Wunderground v.1.15,2013-08-25 14:40:00,
2013-08-25 10:41:00,68.5,58.3,30.45,SE,138,3.0,4.0,70,0.00,,,0.00,664,Wunderground v.1.15,2013-08-25 14:41:00,
2013-08-25 10:44:00,68.6,58.4,30.45,SE,136,2.0,5.0,70,0.00,,,0.00,687,Wunderground v.1.15,2013-08-25 14:44:00,
2013-08-25 10:46:00,68.8,58.6,30.45,SSE,155,2.0,5.0,70,0.00,,,0.00,629,Wunderground v.1.15,2013-08-25 14:46:00,
2013-08-25 10:48:00,69.1,58.1,30.45,SE,124,2.0,6.0,68,0.00,,,0.00,694,Wunderground v.1.15,2013-08-25 14:48:00,
2013-08-25 10:49:00,69.2,58.2,30.45,SE,136,3.0,6.0,68,0.00,,,0.00,622,Wunderground v.1.15,2013-08-25 14:49:00,
2013-08-25 10:53:00,69.5,58.9,30.45,SE,128,2.0,3.0,69,0.00,,,0.00,714,Wunderground v.1.15,2013-08-25 14:53:00,
2013-08-25 10:55:00,69.9,58.4,30.45,SE,127,2.0,3.0,67,0.00,,,0.00,700,Wunderground v.1.15,2013-08-25 14:55:00,
2013-08-25 10:56:00,70.0,58.1,30.45,ESE,117,2.0,5.0,66,0.00,,,0.00,712,Wunderground v.1.15,2013-08-25 14:56:00,
2013-08-25 10:58:00,70.3,58.4,30.45,ENE,59,2.0,5.0,66,0.00,,,0.00,729,Wunderground v.1.15,2013-08-25 14:58:00,
2013-08-25 11:01:00,70.7,58.8,30.45,ESE,111,2.0,2.0,66,0.00,,,0.00,703,Wunderground v.1.15,2013-08-25 15:01:00,
2013-08-25 11:02:00,70.8,58.9,30.45,SE,139,2.0,4.0,66,0.00,,,0.00,703,Wunderground v.1.15,2013-08-25 15:02:00,
2013-08-25 11:04:00,71.1,58.3,30.45,ESE,107,2.0,4.0,64,0.00,,,0.00,751,Wunderground v.1.15,2013-08-25 15:04:00,
2013-08-25 11:07:00,71.4,58.1,30.45,East,99,2.0,5.0,63,0.00,,,0.00,740,Wunderground v.1.15,2013-08-25 15:07:00,
2013-08-25 11:08:00,71.5,58.2,30.45,ESE,113,2.0,5.0,63,0.00,,,0.00,745,Wunderground v.1.15,2013-08-25 15:08:00,
2013-08-25 11:11:00,71.7,58.9,30.44,ESE,106,3.0,8.0,64,0.00,,,0.00,749,Wunderground v.1.15,2013-08-25 15:11:00,
2013-08-25 11:13:00,71.7,58.0,30.44,ESE,117,4.0,8.0,62,0.00,,,0.00,752,Wunderground v.1.15,2013-08-25 15:13:00,
2013-08-25 11:14:00,71.7,58.4,30.44,WSW,257,4.0,8.0,63,0.00,,,0.00,742,Wunderground v.1.15,2013-08-25 15:14:00,
2013-08-25 11:18:00,72.3,58.1,30.44,NW,305,4.0,8.0,61,0.00,,,0.00,759,Wunderground v.1.15,2013-08-25 15:18:00,
2013-08-25 11:19:00,72.5,59.2,30.44,NNW,340,4.0,8.0,63,0.00,,,0.00,756,Wunderground v.1.15,2013-08-25 15:19:00,
2013-08-25 11:20:00,72.8,59.0,30.44,ESE,106,3.0,3.0,62,0.00,,,0.00,733,Wunderground v.1.15,2013-08-25 15:20:00,
2013-08-25 11:23:00,73.3,58.6,30.44,SE,131,2.0,4.0,60,0.00,,,0.00,759,Wunderground v.1.15,2013-08-25 15:23:00,
2013-08-25 11:24:00,73.4,59.6,30.44,SE,146,2.0,4.0,62,0.00,,,0.00,766,Wunderground v.1.15,2013-08-25 15:24:00,
2013-08-25 11:26:00,73.7,58.5,30.44,ESE,118,2.0,8.0,59,0.00,,,0.00,770,Wunderground v.1.15,2013-08-25 15:26:00,
2013-08-25 11:28:00,73.5,57.8,30.44,ESE,111,3.0,8.0,58,0.00,,,0.00,761,Wunderground v.1.15,2013-08-25 15:28:00,
2013-08-25 11:29:00,73.3,58.1,30.44,SE,130,4.0,8.0,59,0.00,,,0.00,765,Wunderground v.1.15,2013-08-25 15:29:00,
2013-08-25 11:31:00,73.3,57.6,30.44,WNW,298,4.0,7.0,58,0.00,,,0.00,768,Wunderground v.1.15,2013-08-25 15:31:00,
2013-08-25 11:34:00,73.4,57.7,30.43,West,273,4.0,7.0,58,0.00,,,0.00,772,Wunderground v.1.15,2013-08-25 15:34:00,
2013-08-25 11:36:00,73.7,57.5,30.43,WSW,238,4.0,7.0,57,0.00,,,0.00,775,Wunderground v.1.15,2013-08-25 15:36:00,
2013-08-25 11:38:00,73.9,58.2,30.43,WSW,244,4.0,7.0,58,0.00,,,0.00,780,Wunderground v.1.15,2013-08-25 15:38:00,
2013-08-25 11:41:00,74.4,58.2,30.43,WNW,293,3.0,3.0,57,0.00,,,0.00,780,Wunderground v.1.15,2013-08-25 15:41:00,
2013-08-25 11:42:00,74.6,57.9,30.43,NNW,338,3.0,3.0,56,0.00,,,0.00,779,Wunderground v.1.15,2013-08-25 15:42:00,
2013-08-25 11:43:00,74.7,57.5,30.43,WSW,257,3.0,3.0,55,0.00,,,0.00,784,Wunderground v.1.15,2013-08-25 15:43:00,
2013-08-25 11:46:00,75.1,57.3,30.43,SE,138,3.0,6.0,54,0.00,,,0.00,777,Wunderground v.1.15,2013-08-25 15:46:00,
2013-08-25 11:47:00,75.1,56.3,30.43,ESE,122,3.0,6.0,52,0.00,,,0.00,795,Wunderground v.1.15,2013-08-25 15:47:00,
2013-08-25 11:49:00,75.3,57.5,30.42,NNW,342,3.0,6.0,54,0.00,,,0.00,796,Wunderground v.1.15,2013-08-25 15:49:00,
2013-08-25 11:51:00,75.4,58.1,30.43,East,87,3.0,3.0,55,0.00,,,0.00,779,Wunderground v.1.15,2013-08-25 15:51:00,
2013-08-25 11:54:00,75.8,56.9,30.42,NW,321,2.0,3.0,52,0.00,,,0.00,722,Wunderground v.1.15,2013-08-25 15:54:00,
2013-08-25 11:55:00,75.8,57.4,30.43,WNW,298,3.0,5.0,53,0.00,,,0.00,795,Wunderground v.1.15,2013-08-25 15:55:00,
2013-08-25 11:57:00,75.9,57.5,30.43,SW,233,2.0,5.0,53,0.00,,,0.00,803,Wunderground v.1.15,2013-08-25 15:57:00,
2013-08-25 12:00:00,76.0,56.0,30.43,SE,139,2.0,2.0,50,0.00,,,0.00,807,Wunderground v.1.15,2013-08-25 16:00:00,
2013-08-25 12:03:00,76.1,56.7,30.43,ESE,113,3.0,6.0,51,0.00,,,0.00,740,Wunderground v.1.15,2013-08-25 16:03:00,
2013-08-25 12:04:00,76.1,55.5,30.43,WNW,284,3.0,6.0,49,0.00,,,0.00,772,Wunderground v.1.15,2013-08-25 16:04:00,
2013-08-25 12:09:00,76.0,56.0,30.42,ENE,75,4.0,6.0,50,0.00,,,0.00,824,Wunderground v.1.15,2013-08-25 16:09:00,
2013-08-25 12:10:00,76.0,56.0,30.42,NNW,329,4.0,6.0,50,0.00,,,0.00,824,Wunderground v.1.15,2013-08-25 16:10:00,
2013-08-25 12:12:00,76.0,56.0,30.42,SE,138,4.0,7.0,50,0.00,,,0.00,824,Wunderground v.1.15,2013-08-25 16:12:00,
2013-08-25 12:13:00,76.0,56.0,30.42,SE,134,4.0,7.0,50,0.00,,,0.00,824,Wunderground v.1.15,2013-08-25 16:13:00,
2013-08-25 12:15:00,75.7,56.3,30.42,NW,305,4.0,7.0,51,0.00,,,0.00,819,Wunderground v.1.15,2013-08-25 16:15:00,
2013-08-25 12:18:00,75.8,54.7,30.42,SE,130,4.0,8.0,48,0.00,,,0.00,828,Wunderground v.1.15,2013-08-25 16:18:00,
2013-08-25 12:21:00,75.4,54.9,30.42,WNW,288,4.0,6.0,49,0.00,,,0.00,809,Wunderground v.1.15,2013-08-25 16:21:00,
2013-08-25 12:23:00,75.5,56.1,30.42,SSE,151,4.0,6.0,51,0.00,,,0.00,773,Wunderground v.1.15,2013-08-25 16:23:00,
2013-08-25 12:24:00,75.6,55.6,30.42,WNW,284,3.0,6.0,50,0.00,,,0.00,819,Wunderground v.1.15,2013-08-25 16:24:00,
2013-08-25 12:25:00,75.8,56.4,30.42,SSE,147,3.0,6.0,51,0.00,,,0.00,833,Wunderground v.1.15,2013-08-25 16:25:00,
2013-08-25 12:27:00,76.0,55.5,30.42,WNW,288,3.0,8.0,49,0.00,,,0.00,837,Wunderground v.1.15,2013-08-25 16:27:00,
2013-08-25 12:31:00,76.2,55.6,30.42,WNW,287,3.0,6.0,49,0.00,,,0.00,835,Wunderground v.1.15,2013-08-25 16:31:00,
2013-08-25 12:32:00,76.3,55.7,30.41,WNW,297,3.0,6.0,49,0.00,,,0.00,835,Wunderground v.1.15,2013-08-25 16:32:00,
2013-08-25 12:34:00,76.4,55.3,30.41,NW,321,3.0,6.0,48,0.00,,,0.00,835,Wunderground v.1.15,2013-08-25 16:34:00,
2013-08-25 12:35:00,76.5,54.8,30.41,SSW,213,3.0,6.0,47,0.00,,,0.00,837,Wunderground v.1.15,2013-08-25 16:35:00,
2013-08-25 12:37:00,76.6,55.4,30.41,WSW,257,3.0,6.0,48,0.00,,,0.00,837,Wunderground v.1.15,2013-08-25 16:37:00,
2013-08-25 12:41:00,77.2,56.0,30.41,WSW,237,2.0,6.0,48,0.00,,,0.00,826,Wunderground v.1.15,2013-08-25 16:41:00,
2013-08-25 12:43:00,77.4,53.8,30.41,North,9,2.0,6.0,44,0.00,,,0.00,842,Wunderground v.1.15,2013-08-25 16:43:00,
2013-08-25 12:44:00,77.5,55.1,30.40,SSE,155,2.0,6.0,46,0.00,,,0.00,847,Wunderground v.1.15,2013-08-25 16:44:00,
2013-08-25 12:45:00,77.6,55.2,30.40,SE,134,2.0,6.0,46,0.00,,,0.00,846,Wunderground v.1.15,2013-08-25 16:45:00,
2013-08-25 12:47:00,77.6,54.6,30.41,SE,131,3.0,7.0,45,0.00,,,0.00,837,Wunderground v.1.15,2013-08-25 16:47:00,
2013-08-25 12:48:00,77.5,54.5,30.41,SE,131,3.0,7.0,45,0.00,,,0.00,847,Wunderground v.1.15,2013-08-25 16:48:00,
2013-08-25 12:51:00,77.2,54.2,30.40,SE,141,4.0,6.0,45,0.00,,,0.00,846,Wunderground v.1.15,2013-08-25 16:51:00,
2013-08-25 12:53:00,77.2,55.4,30.40,WSW,250,4.0,6.0,47,0.00,,,0.00,837,Wunderground v.1.15,2013-08-25 16:53:00,
2013-08-25 12:55:00,77.3,54.9,30.40,NW,319,4.0,6.0,46,0.00,,,0.00,833,Wunderground v.1.15,2013-08-25 16:55:00,
2013-08-25 12:56:00,77.2,54.8,30.40,NW,315,4.0,6.0,46,0.00,,,0.00,838,Wunderground v.1.15,2013-08-25 16:56:00,
2013-08-25 12:57:00,77.1,54.7,30.40,NW,325,4.0,6.0,46,0.00,,,0.00,842,Wunderground v.1.15,2013-08-25 16:57:00,
2013-08-25 12:59:00,77.2,55.4,30.41,North,355,3.0,6.0,47,0.00,,,0.00,844,Wunderground v.1.15,2013-08-25 16:59:00,
2013-08-25 13:01:00,77.2,54.8,30.40,NW,308,4.0,9.0,46,0.00,,,0.00,831,Wunderground v.1.15,2013-08-25 17:01:00,
2013-08-25 13:05:00,77.2,55.4,30.40,ESE,123,5.0,9.0,47,0.00,,,0.00,838,Wunderground v.1.15,2013-08-25 17:05:00,
2013-08-25 13:06:00,77.3,54.9,30.40,ESE,113,5.0,9.0,46,0.00,,,0.00,840,Wunderground v.1.15,2013-08-25 17:06:00,
2013-08-25 13:07:00,77.3,54.9,30.40,SSE,168,5.0,9.0,46,0.00,,,0.00,835,Wunderground v.1.15,2013-08-25 17:07:00,
2013-08-25 13:08:00,77.4,55.6,30.40,ESE,103,5.0,9.0,47,0.00,,,0.00,830,Wunderground v.1.15,2013-08-25 17:08:00,
2013-08-25 13:11:00,77.6,56.9,30.40,SSW,194,4.0,9.0,49,0.00,,,0.00,835,Wunderground v.1.15,2013-08-25 17:11:00,
2013-08-25 13:12:00,77.8,56.0,30.40,SSE,148,3.0,9.0,47,0.00,,,0.00,842,Wunderground v.1.15,2013-08-25 17:12:00,
2013-08-25 13:13:00,78.0,56.1,30.40,ESE,114,3.0,9.0,47,0.00,,,0.00,842,Wunderground v.1.15,2013-08-25 17:13:00,
2013-08-25 13:14:00,78.2,55.7,30.40,ESE,121,3.0,12.0,46,0.00,,,0.00,846,Wunderground v.1.15,2013-08-25 17:14:00,
2013-08-25 13:19:00,77.5,54.5,30.40,NNW,332,5.0,12.0,45,0.00,,,0.00,874,Wunderground v.1.15,2013-08-25 17:19:00,
2013-08-25 13:20:00,77.5,55.1,30.40,NNE,32,5.0,5.0,46,0.00,,,0.00,865,Wunderground v.1.15,2013-08-25 17:20:00,
2013-08-25 13:21:00,77.5,55.1,30.40,WNW,284,5.0,9.0,46,0.00,,,0.00,860,Wunderground v.1.15,2013-08-25 17:21:00,
2013-08-25 13:24:00,77.8,55.4,30.40,WNW,285,5.0,9.0,46,0.00,,,0.00,842,Wunderground v.1.15,2013-08-25 17:24:00,
2013-08-25 13:25:00,77.9,54.8,30.40,North,5,4.0,9.0,45,0.00,,,0.00,840,Wunderground v.1.15,2013-08-25 17:25:00,
2013-08-25 13:27:00,77.9,54.8,30.40,WNW,294,4.0,9.0,45,0.00,,,0.00,837,Wunderground v.1.15,2013-08-25 17:27:00,
2013-08-25 13:29:00,78.0,55.5,30.39,SE,134,4.0,9.0,46,0.00,,,0.00,835,Wunderground v.1.15,2013-08-25 17:29:00,
2013-08-25 13:32:00,78.5,56.0,30.39,WSW,253,4.0,9.0,46,0.00,,,0.00,835,Wunderground v.1.15,2013-08-25 17:32:00,
2013-08-25 13:33:00,78.7,55.0,30.39,NW,310,4.0,9.0,44,0.00,,,0.00,835,Wunderground v.1.15,2013-08-25 17:33:00,
2013-08-25 13:36:00,79.0,53.9,30.39,WNW,285,3.0,9.0,42,0.00,,,0.00,830,Wunderground v.1.15,2013-08-25 17:36:00,
2013-08-25 13:37:00,78.9,54.5,30.39,WNW,283,3.0,9.0,43,0.00,,,0.00,828,Wunderground v.1.15,2013-08-25 17:37:00,
2013-08-25 13:39:00,78.9,55.1,30.39,SE,140,3.0,9.0,44,0.00,,,0.00,830,Wunderground v.1.15,2013-08-25 17:39:00,
2013-08-25 13:43:00,78.7,54.3,30.39,WSW,242,3.0,9.0,43,0.00,,,0.00,831,Wunderground v.1.15,2013-08-25 17:43:00,
2013-08-25 13:45:00,78.9,54.5,30.38,North,5,3.0,9.0,43,0.00,,,0.00,828,Wunderground v.1.15,2013-08-25 17:45:00,
2013-08-25 13:46:00,78.9,54.5,30.38,NNW,338,3.0,9.0,43,0.00,,,0.00,828,Wunderground v.1.15,2013-08-25 17:46:00,
2013-08-25 13:49:00,79.1,54.7,30.38,NW,319,4.0,9.0,43,0.00,,,0.00,824,Wunderground v.1.15,2013-08-25 17:49:00,
2013-08-25 13:53:00,79.3,52.9,30.39,West,259,4.0,9.0,40,0.00,,,0.00,819,Wunderground v.1.15,2013-08-25 17:53:00,
2013-08-25 13:54:00,79.3,53.6,30.38,NW,308,4.0,9.0,41,0.00,,,0.00,821,Wunderground v.1.15,2013-08-25 17:54:00,
2013-08-25 13:56:00,79.5,53.1,30.38,NW,308,4.0,9.0,40,0.00,,,0.00,817,Wunderground v.1.15,2013-08-25 17:56:00,
2013-08-25 13:59:00,79.5,53.1,30.38,SW,227,4.0,9.0,40,0.00,,,0.00,817,Wunderground v.1.15,2013-08-25 17:59:00,
2013-08-25 14:00:00,79.4,52.3,30.38,NW,313,3.0,6.0,39,0.00,,,0.00,819,Wunderground v.1.15,2013-08-25 18:00:00,
2013-08-25 14:02:00,79.4,55.0,30.38,West,267,3.0,6.0,43,0.00,,,0.00,816,Wunderground v.1.15,2013-08-25 18:02:00,
2013-08-25 14:03:00,79.5,53.7,30.38,WNW,292,3.0,6.0,41,0.00,,,0.00,816,Wunderground v.1.15,2013-08-25 18:03:00,
2013-08-25 14:04:00,79.6,53.1,30.38,North,355,3.0,6.0,40,0.00,,,0.00,819,Wunderground v.1.15,2013-08-25 18:04:00,
2013-08-25 14:09:00,79.6,51.0,30.37,WNW,302,3.0,6.0,37,0.00,,,0.00,809,Wunderground v.1.15,2013-08-25 18:09:00,
2013-08-25 14:10:00,79.5,51.7,30.37,WNW,301,3.0,3.0,38,0.00,,,0.00,810,Wunderground v.1.15,2013-08-25 18:10:00,
2013-08-25 14:11:00,79.6,53.1,30.37,NNW,327,3.0,4.0,40,0.00,,,0.00,803,Wunderground v.1.15,2013-08-25 18:11:00,
2013-08-25 14:12:00,79.6,52.5,30.37,NNW,336,3.0,6.0,39,0.00,,,0.00,803,Wunderground v.1.15,2013-08-25 18:12:00,
2013-08-25 14:15:00,79.6,52.5,30.37,West,267,3.0,6.0,39,0.00,,,0.00,803,Wunderground v.1.15,2013-08-25 18:15:00,
2013-08-25 14:16:00,79.6,53.1,30.37,West,274,3.0,6.0,40,0.00,,,0.00,798,Wunderground v.1.15,2013-08-25 18:16:00,
2013-08-25 14:19:00,79.7,52.5,30.37,NNW,327,3.0,6.0,39,0.00,,,0.00,796,Wunderground v.1.15,2013-08-25 18:19:00,
2013-08-25 14:21:00,79.6,52.5,30.37,South,188,3.0,6.0,39,0.00,,,0.00,795,Wunderground v.1.15,2013-08-25 18:21:00,
2013-08-25 14:25:00,79.8,52.6,30.37,ENE,57,3.0,6.0,39,0.00,,,0.00,784,Wunderground v.1.15,2013-08-25 18:25:00,
2013-08-25 14:27:00,79.8,52.6,30.37,NNW,342,3.0,6.0,39,0.00,,,0.00,779,Wunderground v.1.15,2013-08-25 18:27:00,
2013-08-25 14:29:00,80.0,53.5,30.37,WNW,289,3.0,6.0,40,0.00,,,0.00,784,Wunderground v.1.15,2013-08-25 18:29:00,
2013-08-25 14:30:00,80.1,53.6,30.37,West,265,3.0,3.0,40,0.00,,,0.00,782,Wunderground v.1.15,2013-08-25 18:30:00,
2013-08-25 14:31:00,80.3,54.5,30.37,SE,126,3.0,5.0,41,0.00,,,0.00,777,Wunderground v.1.15,2013-08-25 18:31:00,
2013-08-25 14:32:00,80.4,53.9,30.37,ESE,119,3.0,6.0,40,0.00,,,0.00,779,Wunderground v.1.15,2013-08-25 18:32:00,
2013-08-25 14:33:00,80.5,55.3,30.37,WNW,297,3.0,6.0,42,0.00,,,0.00,779,Wunderground v.1.15,2013-08-25 18:33:00,
2013-08-25 14:36:00,80.3,53.8,30.37,WSW,254,3.0,9.0,40,0.00,,,0.00,775,Wunderground v.1.15,2013-08-25 18:36:00,
2013-08-25 14:38:00,80.2,53.0,30.37,ENE,73,4.0,9.0,39,0.00,,,0.00,773,Wunderground v.1.15,2013-08-25 18:38:00,
2013-08-25 14:39:00,80.0,53.5,30.36,WNW,286,4.0,9.0,40,0.00,,,0.00,773,Wunderground v.1.15,2013-08-25 18:39:00,
2013-08-25 14:41:00,79.8,52.6,30.36,SE,142,4.0,14.0,39,0.00,,,0.00,772,Wunderground v.1.15,2013-08-25 18:41:00,
2013-08-25 14:45:00,79.4,53.0,30.36,West,277,5.0,14.0,40,0.00,,,0.00,756,Wunderground v.1.15,2013-08-25 18:45:00,
2013-08-25 14:46:00,79.4,53.6,30.36,WSW,240,5.0,14.0,41,0.00,,,0.00,758,Wunderground v.1.15,2013-08-25 18:46:00,
2013-08-25 14:47:00,79.4,53.0,30.36,NNW,335,5.0,14.0,40,0.00,,,0.00,756,Wunderground v.1.15,2013-08-25 18:47:00,
2013-08-25 14:51:00,79.7,52.5,30.36,North,5,5.0,6.0,39,0.00,,,0.00,749,Wunderground v.1.15,2013-08-25 18:51:00,
2013-08-25 14:52:00,79.8,52.6,30.36,WNW,300,4.0,6.0,39,0.00,,,0.00,751,Wunderground v.1.15,2013-08-25 18:52:00,
2013-08-25 14:53:00,79.9,53.4,30.36,WNW,290,4.0,6.0,40,0.00,,,0.00,742,Wunderground v.1.15,2013-08-25 18:53:00,
2013-08-25 14:54:00,80.0,53.5,30.36,NNW,333,4.0,6.0,40,0.00,,,0.00,744,Wunderground v.1.15,2013-08-25 18:54:00,
2013-08-25 14:57:00,80.7,54.1,30.36,East,89,4.0,6.0,40,0.00,,,0.00,742,Wunderground v.1.15,2013-08-25 18:57:00,
2013-08-25 14:58:00,80.9,53.6,30.36,SSE,159,4.0,6.0,39,0.00,,,0.00,742,Wunderground v.1.15,2013-08-25 18:58:00,
2013-08-25 14:59:00,80.9,52.9,30.36,West,271,4.0,6.0,38,0.00,,,0.00,742,Wunderground v.1.15,2013-08-25 18:59:00,
2013-08-25 15:00:00,81.1,54.5,30.36,West,281,4.0,4.0,40,0.00,,,0.00,735,Wunderground v.1.15,2013-08-25 19:00:00,
2013-08-25 15:01:00,81.1,53.8,30.36,NNE,15,4.0,4.0,39,0.00,,,0.00,735,Wunderground v.1.15,2013-08-25 19:01:00,
2013-08-25 15:05:00,81.4,53.4,30.36,WNW,294,3.0,8.0,38,0.00,,,0.00,729,Wunderground v.1.15,2013-08-25 19:05:00,
2013-08-25 15:06:00,81.3,53.3,30.36,WNW,290,3.0,8.0,38,0.00,,,0.00,733,Wunderground v.1.15,2013-08-25 19:06:00,
2013-08-25 15:07:00,81.2,53.2,30.36,WNW,300,3.0,8.0,38,0.00,,,0.00,738,Wunderground v.1.15,2013-08-25 19:07:00,
2013-08-25 15:09:00,81.2,52.4,30.36,NNW,328,4.0,8.0,37,0.00,,,0.00,696,Wunderground v.1.15,2013-08-25 19:09:00,
2013-08-25 15:11:00,81.2,53.2,30.36,SE,132,4.0,4.0,38,0.00,,,0.00,636,Wunderground v.1.15,2013-08-25 19:11:00,
2013-08-25 15:12:00,81.2,52.4,30.36,NW,314,4.0,4.0,37,0.00,,,0.00,652,Wunderground v.1.15,2013-08-25 19:12:00,
2013-08-25 15:15:00,81.1,52.4,30.36,WNW,302,4.0,4.0,37,0.00,,,0.00,691,Wunderground v.1.15,2013-08-25 19:15:00,
2013-08-25 15:17:00,81.1,52.4,30.36,South,169,3.0,6.0,37,0.00,,,0.00,694,Wunderground v.1.15,2013-08-25 19:17:00,
2013-08-25 15:19:00,81.2,53.2,30.36,WNW,286,3.0,6.0,38,0.00,,,0.00,700,Wunderground v.1.15,2013-08-25 19:19:00,
2013-08-25 15:21:00,81.2,52.4,30.36,West,259,3.0,7.0,37,0.00,,,0.00,698,Wunderground v.1.15,2013-08-25 19:21:00,
2013-08-25 15:23:00,81.0,52.3,30.36,WNW,288,3.0,7.0,37,0.00,,,0.00,693,Wunderground v.1.15,2013-08-25 19:23:00,
2013-08-25 15:24:00,80.9,53.6,30.36,WNW,294,4.0,7.0,39,0.00,,,0.00,686,Wunderground v.1.15,2013-08-25 19:24:00,
2013-08-25 15:27:00,80.9,52.2,30.36,West,280,4.0,7.0,37,0.00,,,0.00,680,Wunderground v.1.15,2013-08-25 19:27:00,
2013-08-25 15:30:00,80.8,52.1,30.36,West,273,4.0,4.0,37,0.00,,,0.00,661,Wunderground v.1.15,2013-08-25 19:30:00,
2013-08-25 15:31:00,80.8,52.1,30.36,SE,130,4.0,4.0,37,0.00,,,0.00,640,Wunderground v.1.15,2013-08-25 19:31:00,
2013-08-25 15:32:00,80.7,52.0,30.36,West,281,3.0,4.0,37,0.00,,,0.00,596,Wunderground v.1.15,2013-08-25 19:32:00,
2013-08-25 15:35:00,80.8,53.5,30.35,WNW,286,4.0,8.0,39,0.00,,,0.00,594,Wunderground v.1.15,2013-08-25 19:35:00,
2013-08-25 15:37:00,80.6,53.4,30.35,NE,46,4.0,8.0,39,0.00,,,0.00,638,Wunderground v.1.15,2013-08-25 19:37:00,
2013-08-25 15:39:00,80.5,54.0,30.35,West,275,4.0,8.0,40,0.00,,,0.00,615,Wunderground v.1.15,2013-08-25 19:39:00,
2013-08-25 15:40:00,80.5,54.6,30.35,NW,325,3.0,3.0,41,0.00,,,0.00,599,Wunderground v.1.15,2013-08-25 19:40:00,
2013-08-25 15:41:00,80.6,52.6,30.36,WSW,252,3.0,4.0,38,0.00,,,0.00,589,Wunderground v.1.15,2013-08-25 19:41:00,
2013-08-25 15:42:00,80.6,51.9,30.36,SE,139,3.0,10.0,37,0.00,,,0.00,624,Wunderground v.1.15,2013-08-25 19:42:00,
2013-08-25 15:45:00,80.3,52.4,30.36,ESE,123,4.0,10.0,38,0.00,,,0.00,606,Wunderground v.1.15,2013-08-25 19:45:00,
2013-08-25 15:46:00,80.3,52.4,30.36,East,98,4.0,10.0,38,0.00,,,0.00,606,Wunderground v.1.15,2013-08-25 19:46:00,
2013-08-25 15:47:00,80.4,51.0,30.36,WNW,295,4.0,10.0,36,0.00,,,0.00,599,Wunderground v.1.15,2013-08-25 19:47:00,
2013-08-25 15:49:00,80.5,51.8,30.36,NNE,14,4.0,10.0,37,0.00,,,0.00,603,Wunderground v.1.15,2013-08-25 19:49:00,
2013-08-25 15:50:00,80.6,51.9,30.36,WSW,246,4.0,4.0,37,0.00,,,0.00,592,Wunderground v.1.15,2013-08-25 19:50:00,
2013-08-25 15:54:00,80.9,52.9,30.35,NW,307,3.0,7.0,38,0.00,,,0.00,585,Wunderground v.1.15,2013-08-25 19:54:00,
2013-08-25 15:57:00,80.9,51.4,30.35,NW,323,3.0,7.0,36,0.00,,,0.00,575,Wunderground v.1.15,2013-08-25 19:57:00,
2013-08-25 16:01:00,81.1,51.6,30.35,NW,324,3.0,6.0,36,0.00,,,0.00,591,Wunderground v.1.15,2013-08-25 20:01:00,
2013-08-25 16:04:00,81.1,52.4,30.35,West,269,3.0,6.0,37,0.00,,,0.00,584,Wunderground v.1.15,2013-08-25 20:04:00,
2013-08-25 16:07:00,81.0,51.5,30.34,SE,130,3.0,6.0,36,0.00,,,0.00,570,Wunderground v.1.15,2013-08-25 20:07:00,
2013-08-25 16:08:00,80.9,52.2,30.34,SE,133,3.0,7.0,37,0.00,,,0.00,573,Wunderground v.1.15,2013-08-25 20:08:00,
2013-08-25 16:09:00,80.8,51.4,30.34,SE,138,4.0,7.0,36,0.00,,,0.00,573,Wunderground v.1.15,2013-08-25 20:09:00,
2013-08-25 16:10:00,80.7,52.0,30.34,WSW,242,4.0,4.0,37,0.00,,,0.00,561,Wunderground v.1.15,2013-08-25 20:10:00,
2013-08-25 16:15:00,80.5,52.6,30.34,ESE,117,4.0,6.0,38,0.00,,,0.00,534,Wunderground v.1.15,2013-08-25 20:15:00,
2013-08-25 16:16:00,80.5,53.3,30.34,SSE,151,4.0,8.0,39,0.00,,,0.00,529,Wunderground v.1.15,2013-08-25 20:16:00,
2013-08-25 16:17:00,80.3,53.1,30.34,ESE,121,4.0,8.0,39,0.00,,,0.00,529,Wunderground v.1.15,2013-08-25 20:17:00,
2013-08-25 16:18:00,80.1,52.9,30.34,ESE,112,4.0,8.0,39,0.00,,,0.00,534,Wunderground v.1.15,2013-08-25 20:18:00,
2013-08-25 16:23:00,79.6,53.1,30.34,SSE,153,5.0,6.0,40,0.00,,,0.00,536,Wunderground v.1.15,2013-08-25 20:23:00,
2013-08-25 16:24:00,79.5,53.1,30.34,East,88,5.0,6.0,40,0.00,,,0.00,513,Wunderground v.1.15,2013-08-25 20:24:00,
2013-08-25 16:25:00,79.5,53.7,30.34,SSE,157,5.0,6.0,41,0.00,,,0.00,494,Wunderground v.1.15,2013-08-25 20:25:00,
2013-08-25 16:29:00,79.4,54.3,30.34,SE,144,5.0,9.0,42,0.00,,,0.00,434,Wunderground v.1.15,2013-08-25 20:29:00,
2013-08-25 16:33:00,79.7,54.6,30.34,West,277,4.0,4.0,42,0.00,,,0.00,415,Wunderground v.1.15,2013-08-25 20:33:00,
2013-08-25 16:34:00,79.8,54.7,30.33,NNW,330,5.0,5.0,42,0.00,,,0.00,408,Wunderground v.1.15,2013-08-25 20:34:00,
2013-08-25 16:35:00,79.8,54.7,30.33,West,269,5.0,5.0,42,0.00,,,0.00,413,Wunderground v.1.15,2013-08-25 20:35:00,
2013-08-25 16:36:00,79.9,54.8,30.34,West,279,4.0,5.0,42,0.00,,,0.00,394,Wunderground v.1.15,2013-08-25 20:36:00,
2013-08-25 16:40:00,80.0,53.5,30.33,WNW,291,3.0,3.0,40,0.00,,,0.00,401,Wunderground v.1.15,2013-08-25 20:40:00,
2013-08-25 16:41:00,80.0,54.2,30.33,WNW,288,3.0,4.0,41,0.00,,,0.00,413,Wunderground v.1.15,2013-08-25 20:41:00,
2013-08-25 16:42:00,80.0,54.2,30.33,SW,221,3.0,4.0,41,0.00,,,0.00,422,Wunderground v.1.15,2013-08-25 20:42:00,
2013-08-25 16:43:00,80.0,54.8,30.33,SE,142,3.0,4.0,42,0.00,,,0.00,422,Wunderground v.1.15,2013-08-25 20:43:00,
2013-08-25 16:46:00,80.0,54.8,30.33,SE,140,3.0,4.0,42,0.00,,,0.00,434,Wunderground v.1.15,2013-08-25 20:46:00,
2013-08-25 16:48:00,80.0,54.8,30.33,SE,133,3.0,4.0,42,0.00,,,0.00,434,Wunderground v.1.15,2013-08-25 20:48:00,
2013-08-25 16:49:00,80.1,54.9,30.33,SSE,157,3.0,4.0,42,0.00,,,0.00,434,Wunderground v.1.15,2013-08-25 20:49:00,
2013-08-25 16:53:00,79.9,54.8,30.32,ESE,123,5.0,8.0,42,0.00,,,0.00,434,Wunderground v.1.15,2013-08-25 20:53:00,
2013-08-25 16:54:00,79.9,54.8,30.32,SSE,158,5.0,8.0,42,0.00,,,0.00,439,Wunderground v.1.15,2013-08-25 20:54:00,
2013-08-25 16:55:00,79.8,54.7,30.32,SE,124,5.0,8.0,42,0.00,,,0.00,441,Wunderground v.1.15,2013-08-25 20:55:00,
2013-08-25 16:56:00,79.7,54.6,30.32,ESE,114,5.0,8.0,42,0.00,,,0.00,434,Wunderground v.1.15,2013-08-25 20:56:00,
2013-08-25 16:59:00,79.8,55.3,30.32,SE,129,4.0,8.0,43,0.00,,,0.00,343,Wunderground v.1.15,2013-08-25 20:59:00,
2013-08-25 17:00:00,79.8,55.3,30.32,ESE,119,4.0,7.0,43,0.00,,,0.00,271,Wunderground v.1.15,2013-08-25 21:00:00,
2013-08-25 17:01:00,79.9,55.4,30.32,SE,136,4.0,7.0,43,0.00,,,0.00,271,Wunderground v.1.15,2013-08-25 21:01:00,
2013-08-25 17:04:00,79.9,54.8,30.32,SE,128,4.0,7.0,42,0.00,,,0.00,142,Wunderground v.1.15,2013-08-25 21:04:00,
2013-08-25 17:06:00,79.8,55.3,30.32,ESE,122,4.0,8.0,43,0.00,,,0.00,127,Wunderground v.1.15,2013-08-25 21:06:00,
2013-08-25 17:08:00,79.7,54.6,30.32,SE,141,5.0,8.0,42,0.00,,,0.00,127,Wunderground v.1.15,2013-08-25 21:08:00,
2013-08-25 17:11:00,79.6,55.1,30.31,SE,127,5.0,7.0,43,0.00,,,0.00,137,Wunderground v.1.15,2013-08-25 21:11:00,
2013-08-25 17:14:00,79.5,55.0,30.31,NNW,331,5.0,8.0,43,0.00,,,0.00,127,Wunderground v.1.15,2013-08-25 21:14:00,
2013-08-25 17:15:00,79.4,55.6,30.31,SSE,148,5.0,8.0,44,0.00,,,0.00,121,Wunderground v.1.15,2013-08-25 21:15:00,
2013-08-25 17:16:00,79.4,55.6,30.31,ESE,108,5.0,8.0,44,0.00,,,0.00,123,Wunderground v.1.15,2013-08-25 21:16:00,
2013-08-25 17:20:00,79.4,55.6,30.31,SE,141,4.0,4.0,44,0.00,,,0.00,144,Wunderground v.1.15,2013-08-25 21:20:00,
2013-08-25 17:22:00,79.3,54.9,30.31,West,267,4.0,8.0,43,0.00,,,0.00,160,Wunderground v.1.15,2013-08-25 21:22:00,
2013-08-25 17:24:00,79.3,55.5,30.31,SE,126,4.0,8.0,44,0.00,,,0.00,120,Wunderground v.1.15,2013-08-25 21:24:00,
2013-08-25 17:25:00,79.3,55.5,30.31,ESE,105,4.0,8.0,44,0.00,,,0.00,116,Wunderground v.1.15,2013-08-25 21:25:00,
2013-08-25 17:26:00,79.2,54.8,30.31,SSE,158,4.0,8.0,43,0.00,,,0.00,111,Wunderground v.1.15,2013-08-25 21:26:00,
2013-08-25 17:27:00,79.2,54.8,30.31,SE,135,4.0,8.0,43,0.00,,,0.00,102,Wunderground v.1.15,2013-08-25 21:27:00,
2013-08-25 17:28:00,79.1,54.7,30.31,SE,132,4.0,8.0,43,0.00,,,0.00,100,Wunderground v.1.15,2013-08-25 21:28:00,
2013-08-25 17:32:00,78.9,55.1,30.31,ESE,120,4.0,7.0,44,0.00,,,0.00,98,Wunderground v.1.15,2013-08-25 21:32:00,
2013-08-25 17:34:00,78.8,55.7,30.31,SSE,154,4.0,7.0,45,0.00,,,0.00,105,Wunderground v.1.15,2013-08-25 21:34:00,
2013-08-25 17:36:00,78.8,55.0,30.31,SSE,153,4.0,7.0,44,0.00,,,0.00,114,Wunderground v.1.15,2013-08-25 21:36:00,
2013-08-25 17:39:00,78.8,54.4,30.31,SE,128,4.0,9.0,43,0.00,,,0.00,121,Wunderground v.1.15,2013-08-25 21:39:00,
2013-08-25 17:40:00,78.8,55.0,30.31,SSE,165,4.0,7.0,44,0.00,,,0.00,121,Wunderground v.1.15,2013-08-25 21:40:00,
2013-08-25 17:42:00,78.8,55.0,30.31,South,178,4.0,7.0,44,0.00,,,0.00,125,Wunderground v.1.15,2013-08-25 21:42:00,
2013-08-25 17:43:00,78.9,55.8,30.31,South,182,4.0,7.0,45,0.00,,,0.00,127,Wunderground v.1.15,2013-08-25 21:43:00,
2013-08-25 17:45:00,78.9,55.1,30.31,SSE,153,4.0,7.0,44,0.00,,,0.00,128,Wunderground v.1.15,2013-08-25 21:45:00,
2013-08-25 17:47:00,79.0,55.2,30.31,SSE,148,5.0,7.0,44,0.00,,,0.00,130,Wunderground v.1.15,2013-08-25 21:47:00,
2013-08-25 17:50:00,79.1,55.3,30.30,ESE,107,4.0,7.0,44,0.00,,,0.00,130,Wunderground v.1.15,2013-08-25 21:50:00,
2013-08-25 17:51:00,79.1,55.3,30.30,SSE,161,4.0,7.0,44,0.00,,,0.00,128,Wunderground v.1.15,2013-08-25 21:51:00,
2013-08-25 17:53:00,79.2,56.0,30.30,SSE,165,4.0,7.0,45,0.00,,,0.00,120,Wunderground v.1.15,2013-08-25 21:53:00,
2013-08-25 17:55:00,79.3,56.1,30.30,ESE,108,4.0,7.0,45,0.00,,,0.00,114,Wunderground v.1.15,2013-08-25 21:55:00,
2013-08-25 17:57:00,79.3,55.5,30.30,SW,214,4.0,7.0,44,0.00,,,0.00,109,Wunderground v.1.15,2013-08-25 21:57:00,
2013-08-25 18:00:00,79.2,55.4,30.30,ESE,122,4.0,4.0,44,0.00,,,0.00,109,Wunderground v.1.15,2013-08-25 22:00:00,
2013-08-25 18:02:00,79.2,56.0,30.30,SE,136,4.0,7.0,45,0.00,,,0.00,118,Wunderground v.1.15,2013-08-25 22:02:00,
2013-08-25 18:03:00,79.2,56.0,30.30,ESE,118,4.0,7.0,45,0.00,,,0.00,109,Wunderground v.1.15,2013-08-25 22:03:00,
2013-08-25 18:04:00,79.2,56.0,30.30,ESE,104,4.0,7.0,45,0.00,,,0.00,111,Wunderground v.1.15,2013-08-25 22:04:00,
2013-08-25 18:08:00,79.1,55.9,30.30,ESE,123,4.0,7.0,45,0.00,,,0.00,102,Wunderground v.1.15,2013-08-25 22:08:00,
2013-08-25 18:09:00,79.1,55.3,30.31,SE,135,4.0,7.0,44,0.00,,,0.00,118,Wunderground v.1.15,2013-08-25 22:09:00,
2013-08-25 18:11:00,79.1,55.9,30.31,ESE,111,4.0,7.0,45,0.00,,,0.00,105,Wunderground v.1.15,2013-08-25 22:11:00,
2013-08-25 18:12:00,79.1,55.3,30.31,ESE,107,4.0,7.0,44,0.00,,,0.00,98,Wunderground v.1.15,2013-08-25 22:12:00,
2013-08-25 18:15:00,79.1,55.9,30.30,SSE,159,4.0,7.0,45,0.00,,,0.00,95,Wunderground v.1.15,2013-08-25 22:15:00,
2013-08-25 18:18:00,79.1,55.9,30.30,WNW,298,4.0,7.0,45,0.00,,,0.00,93,Wunderground v.1.15,2013-08-25 22:18:00,
2013-08-25 18:19:00,79.1,55.9,30.30,East,86,4.0,7.0,45,0.00,,,0.00,91,Wunderground v.1.15,2013-08-25 22:19:00,
2013-08-25 18:20:00,79.1,55.9,30.30,SSW,211,3.0,3.0,45,0.00,,,0.00,91,Wunderground v.1.15,2013-08-25 22:20:00,
2013-08-25 18:21:00,79.1,55.9,30.30,SE,129,3.0,4.0,45,0.00,,,0.00,91,Wunderground v.1.15,2013-08-25 22:21:00,
2013-08-25 18:23:00,79.1,55.9,30.30,SE,125,3.0,7.0,45,0.00,,,0.00,90,Wunderground v.1.15,2013-08-25 22:23:00,
2013-08-25 18:24:00,79.1,56.5,30.30,SE,124,3.0,7.0,46,0.00,,,0.00,90,Wunderground v.1.15,2013-08-25 22:24:00,
2013-08-25 18:28:00,79.0,56.5,30.30,SSE,158,3.0,7.0,46,0.00,,,0.00,86,Wunderground v.1.15,2013-08-25 22:28:00,
2013-08-25 18:31:00,79.0,56.5,30.30,SE,130,2.0,5.0,46,0.00,,,0.00,84,Wunderground v.1.15,2013-08-25 22:31:00,
2013-08-25 18:32:00,79.0,55.8,30.30,ESE,115,3.0,7.0,45,0.00,,,0.00,84,Wunderground v.1.15,2013-08-25 22:32:00,
2013-08-25 18:34:00,78.8,56.3,30.30,SSE,153,3.0,7.0,46,0.00,,,0.00,81,Wunderground v.1.15,2013-08-25 22:34:00,
2013-08-25 18:37:00,78.7,56.8,30.29,SE,130,4.0,7.0,47,0.00,,,0.00,77,Wunderground v.1.15,2013-08-25 22:37:00,
2013-08-25 18:39:00,78.6,56.7,30.29,SSE,147,5.0,7.0,47,0.00,,,0.00,74,Wunderground v.1.15,2013-08-25 22:39:00,
2013-08-25 18:40:00,78.6,56.7,30.29,ESE,121,5.0,7.0,47,0.00,,,0.00,72,Wunderground v.1.15,2013-08-25 22:40:00,
2013-08-25 18:42:00,78.4,56.5,30.29,SE,146,5.0,7.0,47,0.00,,,0.00,70,Wunderground v.1.15,2013-08-25 22:42:00,
2013-08-25 18:43:00,78.4,56.5,30.29,SE,132,5.0,7.0,47,0.00,,,0.00,69,Wunderground v.1.15,2013-08-25 22:43:00,
2013-08-25 18:46:00,78.4,56.5,30.29,SSE,147,4.0,7.0,47,0.00,,,0.00,63,Wunderground v.1.15,2013-08-25 22:46:00,
2013-08-25 18:47:00,78.4,56.5,30.29,ESE,118,5.0,7.0,47,0.00,,,0.00,62,Wunderground v.1.15,2013-08-25 22:47:00,
2013-08-25 18:52:00,78.2,56.3,30.29,SSE,148,5.0,7.0,47,0.00,,,0.00,56,Wunderground v.1.15,2013-08-25 22:52:00,
2013-08-25 18:53:00,78.2,56.3,30.29,SE,134,4.0,7.0,47,0.00,,,0.00,56,Wunderground v.1.15,2013-08-25 22:53:00,
2013-08-25 18:55:00,78.1,56.8,30.29,ESE,122,4.0,7.0,48,0.00,,,0.00,56,Wunderground v.1.15,2013-08-25 22:55:00,
2013-08-25 18:56:00,78.1,56.8,30.29,SE,132,4.0,7.0,48,0.00,,,0.00,54,Wunderground v.1.15,2013-08-25 22:56:00,
2013-08-25 18:57:00,78.1,56.8,30.29,ESE,118,4.0,7.0,48,0.00,,,0.00,53,Wunderground v.1.15,2013-08-25 22:57:00,
2013-08-25 19:02:00,78.0,56.7,30.29,ESE,123,3.0,5.0,48,0.00,,,0.00,47,Wunderground v.1.15,2013-08-25 23:02:00,
2013-08-25 19:03:00,78.0,56.7,30.29,ESE,123,3.0,5.0,48,0.00,,,0.00,46,Wunderground v.1.15,2013-08-25 23:03:00,
2013-08-25 19:04:00,78.0,57.3,30.29,SE,140,3.0,7.0,49,0.00,,,0.00,46,Wunderground v.1.15,2013-08-25 23:04:00,
2013-08-25 19:05:00,77.9,56.6,30.29,SE,140,3.0,7.0,48,0.00,,,0.00,44,Wunderground v.1.15,2013-08-25 23:05:00,
2013-08-25 19:08:00,77.8,57.1,30.29,SE,124,3.0,7.0,49,0.00,,,0.00,42,Wunderground v.1.15,2013-08-25 23:08:00,
2013-08-25 19:09:00,77.8,57.1,30.29,SSE,153,3.0,7.0,49,0.00,,,0.00,42,Wunderground v.1.15,2013-08-25 23:09:00,
2013-08-25 19:10:00,77.7,57.0,30.29,ESE,117,3.0,5.0,49,0.00,,,0.00,42,Wunderground v.1.15,2013-08-25 23:10:00,
2013-08-25 19:11:00,77.6,56.9,30.29,ESE,123,3.0,5.0,49,0.00,,,0.00,40,Wunderground v.1.15,2013-08-25 23:11:00,
2013-08-25 19:13:00,77.5,56.8,30.29,SE,142,4.0,6.0,49,0.00,,,0.00,39,Wunderground v.1.15,2013-08-25 23:13:00,
2013-08-25 19:16:00,77.4,56.7,30.29,SE,138,3.0,6.0,49,0.00,,,0.00,35,Wunderground v.1.15,2013-08-25 23:16:00,
2013-08-25 19:17:00,77.3,57.2,30.29,SE,130,4.0,6.0,50,0.00,,,0.00,35,Wunderground v.1.15,2013-08-25 23:17:00,
2013-08-25 19:19:00,77.3,57.2,30.29,SE,141,3.0,6.0,50,0.00,,,0.00,32,Wunderground v.1.15,2013-08-25 23:19:00,
2013-08-25 19:20:00,77.2,57.1,30.28,SSE,159,3.0,5.0,50,0.00,,,0.00,28,Wunderground v.1.15,2013-08-25 23:20:00,
2013-08-25 19:23:00,77.0,56.9,30.29,South,169,3.0,5.0,50,0.00,,,0.00,23,Wunderground v.1.15,2013-08-25 23:23:00,
2013-08-25 19:24:00,77.0,56.9,30.29,SSE,161,3.0,5.0,50,0.00,,,0.00,21,Wunderground v.1.15,2013-08-25 23:24:00,
2013-08-25 19:26:00,76.9,56.8,30.29,SE,134,3.0,5.0,50,0.00,,,0.00,16,Wunderground v.1.15,2013-08-25 23:26:00,
2013-08-25 19:29:00,76.7,56.7,30.29,SSE,159,3.0,5.0,50,0.00,,,0.00,12,Wunderground v.1.15,2013-08-25 23:29:00,
2013-08-25 19:30:00,76.7,57.2,30.29,SSE,168,3.0,3.0,51,0.00,,,0.00,12,Wunderground v.1.15,2013-08-25 23:30:00,
2013-08-25 19:31:00,76.6,57.1,30.29,SSE,167,3.0,5.0,51,0.00,,,0.00,11,Wunderground v.1.15,2013-08-25 23:31:00,
2013-08-25 19:33:00,76.5,57.0,30.29,SE,125,2.0,5.0,51,0.00,,,0.00,9,Wunderground v.1.15,2013-08-25 23:33:00,
2013-08-25 19:35:00,76.5,57.0,30.29,SE,133,2.0,5.0,51,0.00,,,0.00,7,Wunderground v.1.15,2013-08-25 23:35:00,
2013-08-25 19:36:00,76.4,56.9,30.29,SSE,161,2.0,5.0,51,0.00,,,0.00,7,Wunderground v.1.15,2013-08-25 23:36:00,
2013-08-25 19:37:00,76.4,56.9,30.29,SE,144,3.0,5.0,51,0.00,,,0.00,7,Wunderground v.1.15,2013-08-25 23:37:00,
2013-08-25 19:41:00,76.2,56.7,30.29,SSE,161,2.0,5.0,51,0.00,,,0.00,5,Wunderground v.1.15,2013-08-25 23:41:00,
2013-08-25 19:42:00,76.2,57.3,30.29,SSE,168,2.0,5.0,52,0.00,,,0.00,5,Wunderground v.1.15,2013-08-25 23:42:00,
2013-08-25 19:44:00,76.1,57.2,30.29,SSE,154,2.0,5.0,52,0.00,,,0.00,0,Wunderground v.1.15,2013-08-25 23:44:00,
2013-08-25 19:47:00,75.9,57.0,30.29,SSE,149,2.0,5.0,52,0.00,,,0.00,0,Wunderground v.1.15,2013-08-25 23:47:00,
2013-08-25 19:48:00,75.9,57.0,30.29,SSE,153,2.0,5.0,52,0.00,,,0.00,0,Wunderground v.1.15,2013-08-25 23:48:00,
2013-08-25 19:52:00,75.7,57.4,30.28,SE,131,2.0,5.0,53,0.00,,,0.00,0,Wunderground v.1.15,2013-08-25 23:52:00,
2013-08-25 19:54:00,75.6,57.3,30.28,SE,136,2.0,5.0,53,0.00,,,0.00,0,Wunderground v.1.15,2013-08-25 23:54:00,
2013-08-25 19:58:00,75.3,57.5,30.28,SE,146,2.0,5.0,54,0.00,,,0.00,0,Wunderground v.1.15,2013-08-25 23:58:00,
2013-08-25 19:59:00,75.3,57.5,30.28,SE,138,2.0,5.0,54,0.00,,,0.00,0,Wunderground v.1.15,2013-08-25 23:59:00,
2013-08-25 20:01:00,75.2,57.4,30.28,SE,145,3.0,5.0,54,0.00,,,0.00,0,Wunderground v.1.15,2013-08-26 00:01:00,
2013-08-25 20:03:00,75.1,57.3,30.28,SE,132,3.0,5.0,54,0.00,,,0.00,0,Wunderground v.1.15,2013-08-26 00:03:00,
2013-08-25 20:05:00,75.0,57.2,30.28,SSE,149,3.0,5.0,54,0.00,,,0.00,0,Wunderground v.1.15,2013-08-26 00:05:00,
2013-08-25 20:06:00,75.0,57.2,30.28,SE,140,3.0,5.0,54,0.00,,,0.00,0,Wunderground v.1.15,2013-08-26 00:06:00,
2013-08-25 20:09:00,74.9,57.6,30.28,SE,142,3.0,5.0,55,0.00,,,0.00,0,Wunderground v.1.15,2013-08-26 00:09:00,
2013-08-25 20:10:00,74.9,57.6,30.28,SE,140,3.0,5.0,55,0.00,,,0.00,0,Wunderground v.1.15,2013-08-26 00:10:00,
2013-08-25 20:11:00,74.9,57.6,30.28,SE,139,3.0,5.0,55,0.00,,,0.00,0,Wunderground v.1.15,2013-08-26 00:11:00,
2013-08-25 20:13:00,74.8,57.5,30.28,SSE,163,3.0,5.0,55,0.00,,,0.00,0,Wunderground v.1.15,2013-08-26 00:13:00,
2013-08-25 20:14:00,74.8,57.5,30.28,SSE,167,3.0,5.0,55,0.00,,,0.00,0,Wunderground v.1.15,2013-08-26 00:14:00,
2013-08-25 20:16:00,74.7,57.5,30.28,SE,135,3.0,5.0,55,0.00,,,0.00,0,Wunderground v.1.15,2013-08-26 00:16:00,
2013-08-25 20:18:00,74.6,57.9,30.28,SE,141,3.0,5.0,56,0.00,,,0.00,0,Wunderground v.1.15,2013-08-26 00:18:00,
2013-08-25 20:19:00,74.6,57.9,30.28,SSE,149,3.0,5.0,56,0.00,,,0.00,0,Wunderground v.1.15,2013-08-26 00:19:00,
2013-08-25 20:20:00,74.6,57.9,30.28,ESE,121,3.0,3.0,56,0.00,,,0.00,0,Wunderground v.1.15,2013-08-26 00:20:00,
2013-08-25 20:23:00,74.4,57.7,30.28,SSE,161,2.0,5.0,56,0.00,,,0.00,0,Wunderground v.1.15,2013-08-26 00:23:00,
2013-08-25 20:24:00,74.3,57.6,30.28,SE,145,2.0,5.0,56,0.00,,,0.00,0,Wunderground v.1.15,2013-08-26 00:24:00,
2013-08-25 20:27:00,74.2,58.0,30.28,SSE,161,1.0,5.0,57,0.00,,,0.00,0,Wunderground v.1.15,2013-08-26 00:27:00,
2013-08-25 20:28:00,74.1,57.9,30.28,SSE,160,1.0,5.0,57,0.00,,,0.00,0,Wunderground v.1.15,2013-08-26 00:28:00,
2013-08-25 20:30:00,74.0,57.8,30.28,SE,126,1.0,5.0,57,0.00,,,0.00,0,Wunderground v.1.15,2013-08-26 00:30:00,
2013-08-25 20:32:00,74.0,57.8,30.28,SSE,148,1.0,5.0,57,0.00,,,0.00,0,Wunderground v.1.15,2013-08-26 00:32:00,
2013-08-25 20:33:00,73.9,58.2,30.28,SE,144,1.0,5.0,58,0.00,,,0.00,0,Wunderground v.1.15,2013-08-26 00:33:00,
2013-08-25 20:34:00,73.9,57.7,30.28,ESE,115,1.0,5.0,57,0.00,,,0.00,0,Wunderground v.1.15,2013-08-26 00:34:00,
2013-08-25 20:35:00,73.9,58.2,30.28,SE,124,2.0,5.0,58,0.00,,,0.00,0,Wunderground v.1.15,2013-08-26 00:35:00,
2013-08-25 20:37:00,73.9,58.2,30.28,SE,132,2.0,5.0,58,0.00,,,0.00,0,Wunderground v.1.15,2013-08-26 00:37:00,
2013-08-25 20:38:00,73.9,58.2,30.28,SE,132,2.0,5.0,58,0.00,,,0.00,0,Wunderground v.1.15,2013-08-26 00:38:00,
2013-08-25 20:40:00,73.8,58.1,30.28,SE,134,2.0,2.0,58,0.00,,,0.00,0,Wunderground v.1.15,2013-08-26 00:40:00,
2013-08-25 20:41:00,73.8,58.1,30.28,SSE,151,2.0,5.0,58,0.00,,,0.00,0,Wunderground v.1.15,2013-08-26 00:41:00,
2013-08-25 20:44:00,73.7,58.0,30.28,ESE,116,2.0,5.0,58,0.00,,,0.00,0,Wunderground v.1.15,2013-08-26 00:44:00,
2013-08-25 20:46:00,73.7,58.5,30.28,ESE,123,2.0,5.0,59,0.00,,,0.00,0,Wunderground v.1.15,2013-08-26 00:46:00,
2013-08-25 20:48:00,73.6,58.4,30.29,ESE,123,2.0,5.0,59,0.00,,,0.00,0,Wunderground v.1.15,2013-08-26 00:48:00,
2013-08-25 20:49:00,73.5,58.3,30.29,SE,125,2.0,5.0,59,0.00,,,0.00,0,Wunderground v.1.15,2013-08-26 00:49:00,
2013-08-25 20:50:00,73.5,58.3,30.29,SE,140,3.0,3.0,59,0.00,,,0.00,0,Wunderground v.1.15,2013-08-26 00:50:00,
2013-08-25 20:53:00,73.4,58.2,30.29,North,5,2.0,5.0,59,0.00,,,0.00,0,Wunderground v.1.15,2013-08-26 00:53:00,
2013-08-25 20:54:00,73.3,58.1,30.29,North,5,2.0,5.0,59,0.00,,,0.00,0,Wunderground v.1.15,2013-08-26 00:54:00,
2013-08-25 20:56:00,73.3,58.6,30.29,WNW,297,2.0,5.0,60,0.00,,,0.00,0,Wunderground v.1.15,2013-08-26 00:56:00,
2013-08-25 20:57:00,73.3,58.6,30.29,WNW,298,2.0,5.0,60,0.00,,,0.00,0,Wunderground v.1.15,2013-08-26 00:57:00,
2013-08-25 21:00:00,73.1,58.4,30.29,SW,220,1.0,1.0,60,0.00,,,0.00,0,Wunderground v.1.15,2013-08-26 01:00:00,
2013-08-25 21:02:00,73.0,58.3,30.29,WNW,290,1.0,2.0,60,0.00,,,0.00,0,Wunderground v.1.15,2013-08-26 01:02:00,
2013-08-25 21:03:00,73.0,58.3,30.29,NW,318,1.0,2.0,60,0.00,,,0.00,0,Wunderground v.1.15,2013-08-26 01:03:00,
2013-08-25 21:06:00,72.8,58.1,30.29,WNW,293,1.0,2.0,60,0.00,,,0.00,0,Wunderground v.1.15,2013-08-26 01:06:00,
2013-08-25 21:07:00,72.8,58.6,30.29,SSE,149,1.0,2.0,61,0.00,,,0.00,0,Wunderground v.1.15,2013-08-26 01:07:00,
2013-08-25 21:12:00,72.6,58.4,30.29,SSE,147,2.0,6.0,61,0.00,,,0.00,0,Wunderground v.1.15,2013-08-26 01:12:00,
2013-08-25 21:14:00,72.6,58.4,30.29,SE,132,2.0,6.0,61,0.00,,,0.00,0,Wunderground v.1.15,2013-08-26 01:14:00,
2013-08-25 21:15:00,72.5,58.3,30.28,ESE,122,2.0,6.0,61,0.00,,,0.00,0,Wunderground v.1.15,2013-08-26 01:15:00,
2013-08-25 21:16:00,72.5,58.3,30.28,ESE,117,2.0,6.0,61,0.00,,,0.00,0,Wunderground v.1.15,2013-08-26 01:16:00,
2013-08-25 21:19:00,72.4,58.2,30.28,SE,139,3.0,6.0,61,0.00,,,0.00,0,Wunderground v.1.15,2013-08-26 01:19:00,
2013-08-25 21:21:00,72.3,58.5,30.28,ESE,120,3.0,3.0,62,0.00,,,0.00,0,Wunderground v.1.15,2013-08-26 01:21:00,
2013-08-25 21:22:00,72.2,58.5,30.28,SE,129,3.0,3.0,62,0.00,,,0.00,0,Wunderground v.1.15,2013-08-26 01:22:00,
2013-08-25 21:23:00,72.2,58.5,30.28,SE,136,3.0,4.0,62,0.00,,,0.00,0,Wunderground v.1.15,2013-08-26 01:23:00,
2013-08-25 21:27:00,72.1,58.4,30.28,SE,136,2.0,4.0,62,0.00,,,0.00,0,Wunderground v.1.15,2013-08-26 01:27:00,
2013-08-25 21:28:00,72.1,58.4,30.28,SE,128,2.0,4.0,62,0.00,,,0.00,0,Wunderground v.1.15,2013-08-26 01:28:00,
2013-08-25 21:32:00,72.0,58.7,30.29,WSW,255,3.0,3.0,63,0.00,,,0.00,0,Wunderground v.1.15,2013-08-26 01:32:00,
2013-08-25 21:33:00,72.0,58.7,30.29,WNW,288,3.0,3.0,63,0.00,,,0.00,0,Wunderground v.1.15,2013-08-26 01:33:00,
2013-08-25 21:34:00,71.9,58.6,30.29,NW,317,2.0,3.0,63,0.00,,,0.00,0,Wunderground v.1.15,2013-08-26 01:34:00,
2013-08-25 21:36:00,71.9,58.6,30.29,WNW,302,2.0,3.0,63,0.00,,,0.00,0,Wunderground v.1.15,2013-08-26 01:36:00,
2013-08-25 21:40:00,71.8,58.5,30.29,ESE,104,1.0,3.0,63,0.00,,,0.00,0,Wunderground v.1.15,2013-08-26 01:40:00,
2013-08-25 21:41:00,71.8,59.0,30.29,ESE,104,1.0,1.0,64,0.00,,,0.00,0,Wunderground v.1.15,2013-08-26 01:41:00,
2013-08-25 21:42:00,71.8,59.0,30.29,SSE,155,1.0,2.0,64,0.00,,,0.00,0,Wunderground v.1.15,2013-08-26 01:42:00,
2013-08-25 21:46:00,71.7,58.9,30.29,WNW,282,1.0,2.0,64,0.00,,,0.00,0,Wunderground v.1.15,2013-08-26 01:46:00,
2013-08-25 21:48:00,71.6,58.8,30.29,WSW,251,1.0,2.0,64,0.00,,,0.00,0,Wunderground v.1.15,2013-08-26 01:48:00,
2013-08-25 21:49:00,71.6,58.8,30.29,SW,232,1.0,2.0,64,0.00,,,0.00,0,Wunderground v.1.15,2013-08-26 01:49:00,
2013-08-25 21:50:00,71.5,58.7,30.29,SW,232,1.0,2.0,64,0.00,,,0.00,0,Wunderground v.1.15,2013-08-26 01:50:00,
2013-08-25 21:55:00,71.4,58.6,30.29,West,276,1.0,2.0,64,0.00,,,0.00,0,Wunderground v.1.15,2013-08-26 01:55:00,
2013-08-25 21:57:00,71.4,58.6,30.29,SSE,151,1.0,2.0,64,0.00,,,0.00,0,Wunderground v.1.15,2013-08-26 01:57:00,
2013-08-25 21:58:00,71.3,58.5,30.29,SSE,151,1.0,2.0,64,0.00,,,0.00,0,Wunderground v.1.15,2013-08-26 01:58:00,
2013-08-25 22:01:00,71.3,58.5,30.29,NW,304,1.0,2.0,64,0.00,,,0.00,0,Wunderground v.1.15,2013-08-26 02:01:00,
2013-08-25 22:02:00,71.3,58.5,30.29,WNW,286,1.0,2.0,64,0.00,,,0.00,0,Wunderground v.1.15,2013-08-26 02:02:00,
2013-08-25 22:05:00,71.2,58.8,30.29,WNW,287,1.0,3.0,65,0.00,,,0.00,0,Wunderground v.1.15,2013-08-26 02:05:00,
2013-08-25 22:07:00,71.2,58.8,30.29,WSW,248,1.0,3.0,65,0.00,,,0.00,0,Wunderground v.1.15,2013-08-26 02:07:00,
2013-08-25 22:08:00,71.1,58.7,30.29,WSW,252,1.0,3.0,65,0.00,,,0.00,0,Wunderground v.1.15,2013-08-26 02:08:00,
2013-08-25 22:12:00,71.1,58.7,30.29,ESE,107,1.0,1.0,65,0.00,,,0.00,0,Wunderground v.1.15,2013-08-26 02:12:00,
2013-08-25 22:13:00,71.1,58.7,30.29,SSE,165,1.0,1.0,65,0.00,,,0.00,0,Wunderground v.1.15,2013-08-26 02:13:00,
2013-08-25 22:14:00,71.1,58.7,30.29,SSE,165,1.0,1.0,65,0.00,,,0.00,0,Wunderground v.1.15,2013-08-26 02:14:00,
2013-08-25 22:19:00,71.1,58.7,30.30,SSE,152,1.0,3.0,65,0.00,,,0.00,0,Wunderground v.1.15,2013-08-26 02:19:00,
2013-08-25 22:20:00,71.1,58.7,30.30,SSW,195,1.0,1.0,65,0.00,,,0.00,0,Wunderground v.1.15,2013-08-26 02:20:00,
2013-08-25 22:21:00,71.1,58.7,30.30,SSE,152,1.0,1.0,65,0.00,,,0.00,0,Wunderground v.1.15,2013-08-26 02:21:00,
2013-08-25 22:22:00,71.1,58.7,30.30,ESE,123,1.0,3.0,65,0.00,,,0.00,0,Wunderground v.1.15,2013-08-26 02:22:00,
2013-08-25 22:25:00,71.1,58.7,30.30,SE,126,1.0,5.0,65,0.00,,,0.00,0,Wunderground v.1.15,2013-08-26 02:25:00,
2013-08-25 22:27:00,71.1,58.7,30.30,ENE,78,1.0,5.0,65,0.00,,,0.00,0,Wunderground v.1.15,2013-08-26 02:27:00,
2013-08-25 22:28:00,71.1,58.3,30.30,SE,128,1.0,6.0,64,0.00,,,0.00,0,Wunderground v.1.15,2013-08-26 02:28:00,
2013-08-25 22:29:00,71.1,58.3,30.29,SE,126,1.0,6.0,64,0.00,,,0.00,0,Wunderground v.1.15,2013-08-26 02:29:00,
2013-08-25 22:30:00,71.1,58.3,30.30,SE,130,2.0,2.0,64,0.00,,,0.00,0,Wunderground v.1.15,2013-08-26 02:30:00,
2013-08-25 22:32:00,71.2,58.4,30.30,SE,130,1.0,4.0,64,0.00,,,0.00,0,Wunderground v.1.15,2013-08-26 02:32:00,
2013-08-25 22:35:00,71.2,58.8,30.29,ESE,115,1.0,4.0,65,0.00,,,0.00,0,Wunderground v.1.15,2013-08-26 02:35:00,
2013-08-25 22:37:00,71.1,58.3,30.29,SE,130,2.0,4.0,64,0.00,,,0.00,0,Wunderground v.1.15,2013-08-26 02:37:00,
2013-08-25 22:39:00,71.1,58.7,30.29,ESE,117,2.0,4.0,65,0.00,,,0.00,0,Wunderground v.1.15,2013-08-26 02:39:00,
2013-08-25 22:42:00,71.0,58.6,30.30,SE,146,2.0,5.0,65,0.00,,,0.00,0,Wunderground v.1.15,2013-08-26 02:42:00,
2013-08-25 22:43:00,71.0,58.6,30.30,SSE,148,2.0,5.0,65,0.00,,,0.00,0,Wunderground v.1.15,2013-08-26 02:43:00,
2013-08-25 22:46:00,70.9,58.5,30.30,SSW,202,2.0,5.0,65,0.00,,,0.00,0,Wunderground v.1.15,2013-08-26 02:46:00,
2013-08-25 22:48:00,70.8,58.4,30.30,SE,137,2.0,5.0,65,0.00,,,0.00,0,Wunderground v.1.15,2013-08-26 02:48:00,
2013-08-25 22:49:00,70.8,58.9,30.30,WSW,245,2.0,5.0,66,0.00,,,0.00,0,Wunderground v.1.15,2013-08-26 02:49:00,
2013-08-25 22:52:00,70.7,58.4,30.29,WNW,298,1.0,1.0,65,0.00,,,0.00,0,Wunderground v.1.15,2013-08-26 02:52:00,
2013-08-25 22:53:00,70.6,58.3,30.30,WNW,296,1.0,1.0,65,0.00,,,0.00,0,Wunderground v.1.15,2013-08-26 02:53:00,
2013-08-25 22:54:00,70.6,58.7,30.30,East,93,1.0,1.0,66,0.00,,,0.00,0,Wunderground v.1.15,2013-08-26 02:54:00,
2013-08-25 22:56:00,70.6,58.7,30.30,NNE,30,1.0,1.0,66,0.00,,,0.00,0,Wunderground v.1.15,2013-08-26 02:56:00,
2013-08-25 22:57:00,70.5,58.6,30.30,WNW,298,1.0,1.0,66,0.00,,,0.00,0,Wunderground v.1.15,2013-08-26 02:57:00,
2013-08-25 23:01:00,70.5,58.6,30.29,West,275,1.0,3.0,66,0.00,,,0.00,0,Wunderground v.1.15,2013-08-26 03:01:00,
2013-08-25 23:03:00,70.4,58.5,30.29,West,279,1.0,3.0,66,0.00,,,0.00,0,Wunderground v.1.15,2013-08-26 03:03:00,
2013-08-25 23:05:00,70.4,58.5,30.29,WSW,256,1.0,3.0,66,0.00,,,0.00,0,Wunderground v.1.15,2013-08-26 03:05:00,
2013-08-25 23:07:00,70.4,58.1,30.29,ESE,123,1.0,3.0,65,0.00,,,0.00,0,Wunderground v.1.15,2013-08-26 03:07:00,
2013-08-25 23:09:00,70.4,58.1,30.29,SE,142,1.0,3.0,65,0.00,,,0.00,0,Wunderground v.1.15,2013-08-26 03:09:00,
2013-08-25 23:12:00,70.4,58.1,30.29,East,86,1.0,3.0,65,0.00,,,0.00,0,Wunderground v.1.15,2013-08-26 03:12:00,
2013-08-25 23:13:00,70.4,58.1,30.29,SSE,153,2.0,3.0,65,0.00,,,0.00,0,Wunderground v.1.15,2013-08-26 03:13:00,
2013-08-25 23:14:00,70.4,58.1,30.29,ESE,122,2.0,3.0,65,0.00,,,0.00,0,Wunderground v.1.15,2013-08-26 03:14:00,
2013-08-25 23:20:00,70.5,58.2,30.29,ESE,118,3.0,5.0,65,0.00,,,0.00,0,Wunderground v.1.15,2013-08-26 03:20:00,
2013-08-25 23:21:00,70.5,57.7,30.29,SE,129,3.0,5.0,64,0.00,,,0.00,0,Wunderground v.1.15,2013-08-26 03:21:00,
2013-08-25 23:22:00,70.6,57.8,30.29,SE,128,3.0,5.0,64,0.00,,,0.00,0,Wunderground v.1.15,2013-08-26 03:22:00,
2013-08-25 23:26:00,70.6,57.8,30.28,ESE,118,3.0,6.0,64,0.00,,,0.00,0,Wunderground v.1.15,2013-08-26 03:26:00,
2013-08-25 23:27:00,70.6,57.8,30.28,SE,138,3.0,6.0,64,0.00,,,0.00,0,Wunderground v.1.15,2013-08-26 03:27:00,
2013-08-25 23:28:00,70.6,57.8,30.29,SE,126,3.0,6.0,64,0.00,,,0.00,0,Wunderground v.1.15,2013-08-26 03:28:00,
2013-08-25 23:30:00,70.6,57.8,30.28,ESE,113,3.0,3.0,64,0.00,,,0.00,0,Wunderground v.1.15,2013-08-26 03:30:00,
2013-08-25 23:32:00,70.5,57.7,30.28,SE,135,3.0,3.0,64,0.00,,,0.00,0,Wunderground v.1.15,2013-08-26 03:32:00,
2013-08-25 23:35:00,70.5,57.7,30.28,SE,126,3.0,4.0,64,0.00,,,0.00,0,Wunderground v.1.15,2013-08-26 03:35:00,
2013-08-25 23:36:00,70.5,57.7,30.28,SE,143,3.0,4.0,64,0.00,,,0.00,0,Wunderground v.1.15,2013-08-26 03:36:00,
2013-08-25 23:37:00,70.5,57.7,30.29,ESE,109,2.0,4.0,64,0.00,,,0.00,0,Wunderground v.1.15,2013-08-26 03:37:00,
2013-08-25 23:38:00,70.4,58.1,30.29,SE,141,2.0,4.0,65,0.00,,,0.00,0,Wunderground v.1.15,2013-08-26 03:38:00,
2013-08-25 23:41:00,70.4,57.6,30.28,SE,130,2.0,4.0,64,0.00,,,0.00,0,Wunderground v.1.15,2013-08-26 03:41:00,
2013-08-25 23:43:00,70.4,57.6,30.28,ESE,123,2.0,4.0,64,0.00,,,0.00,0,Wunderground v.1.15,2013-08-26 03:43:00,
2013-08-25 23:46:00,70.3,57.5,30.28,SE,124,2.0,5.0,64,0.00,,,0.00,0,Wunderground v.1.15,2013-08-26 03:46:00,
2013-08-25 23:49:00,70.3,57.5,30.28,ESE,115,3.0,5.0,64,0.00,,,0.00,0,Wunderground v.1.15,2013-08-26 03:49:00,
2013-08-25 23:51:00,70.3,57.5,30.28,SE,140,3.0,3.0,64,0.00,,,0.00,0,Wunderground v.1.15,2013-08-26 03:51:00,
2013-08-25 23:54:00,70.2,57.4,30.28,SE,144,3.0,5.0,64,0.00,,,0.00,0,Wunderground v.1.15,2013-08-26 03:54:00,
2013-08-25 23:57:00,70.2,57.4,30.28,SE,137,3.0,5.0,64,0.00,,,0.00,0,Wunderground v.1.15,2013-08-26 03:57:00,
2013-08-25 23:58:00,70.2,57.4,30.28,SE,129,3.0,5.0,64,0.00,,,0.00,0,Wunderground v.1.15,2013-08-26 03:58:00,
2013-08-25 23:59:00,70.2,57.4,30.28,SE,133,3.0,5.0,64,0.00,,,0.00,0,Wunderground v.1.15,2013-08-26 03:59:00,